Time,TemperatureF,DewpointF,PressureIn,WindDirection,WindDirectionDegrees,WindSpeedMPH,WindSpeedGustMPH,Humidity,HourlyPrecipIn,Conditions,Clouds,dailyrainin,SoftwareType,DateUTC
2013-01-25 00:00:00,6.5,2.7,30.24,ESE,113,2.0,3.0,84,0.00,,SKC,0.00,VWS V14.01,2013-01-25 06:00:00,
2013-01-25 00:01:00,5.6,1.8,30.32,SE,139,1.0,3.0,84,0.00,,SKC,0.00,VWS V14.01,2013-01-25 06:01:00,
2013-01-25 00:05:00,6.6,2.8,30.24,SE,128,3.0,3.0,84,0.00,,SKC,0.00,VWS V14.01,2013-01-25 06:05:00,
2013-01-25 00:06:00,5.7,1.9,30.30,SE,130,1.0,3.0,84,0.00,,SKC,0.00,VWS V14.01,2013-01-25 06:06:00,
2013-01-25 00:10:00,6.7,2.9,30.24,SSW,211,2.0,4.0,84,0.00,,SKC,0.00,VWS V14.01,2013-01-25 06:10:00,
2013-01-25 00:11:00,5.7,1.9,30.30,SE,131,1.0,3.0,84,0.00,,SKC,0.00,VWS V14.01,2013-01-25 06:11:00,
2013-01-25 00:15:00,6.8,3.0,30.22,SSW,196,2.0,4.0,84,0.00,,SKC,0.00,VWS V14.01,2013-01-25 06:15:00,
2013-01-25 00:16:00,5.8,2.0,30.30,ESE,116,3.0,4.0,84,0.00,,SKC,0.00,VWS V14.01,2013-01-25 06:16:00,
2013-01-25 00:20:00,6.9,3.1,30.22,South,169,2.0,3.0,84,0.00,,SKC,0.00,VWS V14.01,2013-01-25 06:20:00,
2013-01-25 00:21:00,5.8,2.0,30.28,ESE,117,4.0,4.0,84,0.00,,SKC,0.00,VWS V14.01,2013-01-25 06:21:00,
2013-01-25 00:25:00,6.9,3.1,30.22,SE,142,2.0,3.0,84,0.00,,SKC,0.00,VWS V14.01,2013-01-25 06:25:00,
2013-01-25 00:26:00,5.9,2.1,30.28,SSE,153,1.0,3.0,84,0.00,,SKC,0.00,VWS V14.01,2013-01-25 06:26:00,
2013-01-25 00:30:00,7.0,3.2,30.20,ESE,113,3.0,3.0,84,0.00,,SKC,0.00,VWS V14.01,2013-01-25 06:30:00,
2013-01-25 00:31:00,6.0,2.2,30.27,SE,137,2.0,4.0,84,0.00,,SKC,0.00,VWS V14.01,2013-01-25 06:31:00,
2013-01-25 00:35:00,7.1,3.3,30.20,SE,144,1.0,3.0,84,0.00,,SKC,0.00,VWS V14.01,2013-01-25 06:35:00,
2013-01-25 00:36:00,6.1,2.3,30.27,SE,135,2.0,4.0,84,0.00,,SKC,0.00,VWS V14.01,2013-01-25 06:36:00,
2013-01-25 00:40:00,7.2,3.4,30.20,SE,133,1.0,7.0,84,0.00,,SKC,0.00,VWS V14.01,2013-01-25 06:40:00,
2013-01-25 00:41:00,6.2,2.4,30.27,ESE,117,2.0,4.0,84,0.00,,SKC,0.00,VWS V14.01,2013-01-25 06:41:00,
2013-01-25 00:45:00,7.3,3.5,30.20,SSE,149,1.0,5.0,84,0.00,,SKC,0.00,VWS V14.01,2013-01-25 06:45:00,
2013-01-25 00:46:00,6.2,2.4,30.25,SE,142,1.0,3.0,84,0.00,,SKC,0.00,VWS V14.01,2013-01-25 06:46:00,
2013-01-25 00:50:00,7.4,3.6,30.20,SSE,164,1.0,2.0,84,0.00,,SKC,0.00,VWS V14.01,2013-01-25 06:50:00,
2013-01-25 00:51:00,6.3,2.5,30.25,ESE,120,3.0,4.0,84,0.00,,SKC,0.00,VWS V14.01,2013-01-25 06:51:00,
2013-01-25 00:55:00,7.5,3.7,30.20,ESE,119,2.0,4.0,84,0.00,,SKC,0.00,VWS V14.01,2013-01-25 06:55:00,
2013-01-25 00:56:00,6.4,2.6,30.25,SE,135,1.0,4.0,84,0.00,,SKC,0.00,VWS V14.01,2013-01-25 06:56:00,
2013-01-25 01:00:00,7.7,4.1,30.20,SSE,152,2.0,3.0,85,0.00,,SKC,0.00,VWS V14.01,2013-01-25 07:00:00,
2013-01-25 01:01:00,6.5,2.7,30.24,SSE,148,1.0,3.0,84,0.00,,SKC,0.00,VWS V14.01,2013-01-25 07:01:00,
2013-01-25 01:05:00,7.7,4.1,30.20,SSE,153,1.0,4.0,85,0.00,,SKC,0.00,VWS V14.01,2013-01-25 07:05:00,
2013-01-25 01:06:00,6.6,2.8,30.24,SE,135,1.0,2.0,84,0.00,,SKC,0.00,VWS V14.01,2013-01-25 07:06:00,
2013-01-25 01:10:00,7.8,4.2,30.20,ESE,108,2.0,6.0,85,0.00,,SKC,0.00,VWS V14.01,2013-01-25 07:10:00,
2013-01-25 01:11:00,6.7,2.9,30.24,SE,143,1.0,4.0,84,0.00,,SKC,0.00,VWS V14.01,2013-01-25 07:11:00,
2013-01-25 01:15:00,7.9,4.6,30.19,SE,144,1.0,6.0,86,0.00,,SKC,0.00,VWS V14.01,2013-01-25 07:15:00,
2013-01-25 01:16:00,6.8,3.0,30.22,SSE,168,1.0,4.0,84,0.00,,SKC,0.00,VWS V14.01,2013-01-25 07:16:00,
2013-01-25 01:20:00,7.9,4.6,30.19,South,173,2.0,4.0,86,0.00,,SKC,0.00,VWS V14.01,2013-01-25 07:20:00,
2013-01-25 01:21:00,6.9,3.1,30.22,SSE,155,2.0,3.0,84,0.00,,SKC,0.00,VWS V14.01,2013-01-25 07:21:00,
2013-01-25 01:25:00,8.0,4.7,30.19,ESE,119,0.0,4.0,86,0.00,,SKC,0.00,VWS V14.01,2013-01-25 07:25:00,
2013-01-25 01:26:00,6.9,3.1,30.22,SE,126,2.0,3.0,84,0.00,,SKC,0.00,VWS V14.01,2013-01-25 07:26:00,
2013-01-25 01:30:00,8.0,4.7,30.18,SE,125,2.0,3.0,86,0.00,,SKC,0.00,VWS V14.01,2013-01-25 07:30:00,
2013-01-25 01:31:00,6.9,3.1,30.20,SW,214,2.0,3.0,84,0.00,,SKC,0.00,VWS V14.01,2013-01-25 07:31:00,
2013-01-25 01:35:00,8.1,4.8,30.18,SE,143,3.0,4.0,86,0.00,,SKC,0.00,VWS V14.01,2013-01-25 07:35:00,
2013-01-25 01:36:00,7.0,3.2,30.20,SSE,150,2.0,3.0,84,0.00,,SKC,0.00,VWS V14.01,2013-01-25 07:36:00,
2013-01-25 01:40:00,8.2,4.9,30.18,SSE,154,1.0,4.0,86,0.00,,SKC,0.00,VWS V14.01,2013-01-25 07:40:00,
2013-01-25 01:41:00,7.1,3.3,30.20,ESE,114,1.0,7.0,84,0.00,,SKC,0.00,VWS V14.01,2013-01-25 07:41:00,
2013-01-25 01:45:00,8.3,5.0,30.16,ESE,115,2.0,3.0,86,0.00,,SKC,0.00,VWS V14.01,2013-01-25 07:45:00,
2013-01-25 01:46:00,7.3,3.5,30.20,SSE,165,0.0,5.0,84,0.00,,SKC,0.00,VWS V14.01,2013-01-25 07:46:00,
2013-01-25 01:50:00,8.3,5.0,30.16,ESE,121,1.0,3.0,86,0.00,,SKC,0.00,VWS V14.01,2013-01-25 07:50:00,
2013-01-25 01:51:00,7.4,3.6,30.20,ESE,102,1.0,2.0,84,0.00,,SKC,0.00,VWS V14.01,2013-01-25 07:51:00,
2013-01-25 01:55:00,8.4,5.1,30.16,SSE,148,1.0,3.0,86,0.00,,SKC,0.00,VWS V14.01,2013-01-25 07:55:00,
2013-01-25 01:57:00,7.5,3.7,30.20,ESE,115,3.0,4.0,84,0.00,,SKC,0.00,VWS V14.01,2013-01-25 07:57:00,
2013-01-25 02:00:00,8.4,5.3,30.15,SE,142,0.0,3.0,87,0.00,,SKC,0.00,VWS V14.01,2013-01-25 08:00:00,
2013-01-25 02:02:00,7.7,4.1,30.20,SE,146,1.0,3.0,85,0.00,,SKC,0.00,VWS V14.01,2013-01-25 08:02:00,
2013-01-25 02:05:00,8.5,5.4,30.15,WSW,245,0.0,3.0,87,0.00,,SKC,0.00,VWS V14.01,2013-01-25 08:05:00,
2013-01-25 02:07:00,7.7,4.1,30.20,ESE,122,1.0,4.0,85,0.00,,SKC,0.00,VWS V14.01,2013-01-25 08:07:00,
2013-01-25 02:10:00,8.6,5.5,30.15,SSW,197,1.0,4.0,87,0.00,,SKC,0.00,VWS V14.01,2013-01-25 08:10:00,
2013-01-25 02:12:00,7.8,4.2,30.20,SE,135,2.0,6.0,85,0.00,,SKC,0.00,VWS V14.01,2013-01-25 08:12:00,
2013-01-25 02:15:00,8.7,5.6,30.14,ESE,118,1.0,4.0,87,0.00,,SKC,0.00,VWS V14.01,2013-01-25 08:15:00,
2013-01-25 02:17:00,7.9,4.6,30.19,SE,140,1.0,6.0,86,0.00,,SKC,0.00,VWS V14.01,2013-01-25 08:17:00,
2013-01-25 02:20:00,8.8,5.7,30.14,ESE,122,0.0,4.0,87,0.00,,SKC,0.00,VWS V14.01,2013-01-25 08:20:00,
2013-01-25 02:22:00,8.0,4.7,30.19,SSE,150,2.0,4.0,86,0.00,,SKC,0.00,VWS V14.01,2013-01-25 08:22:00,
2013-01-25 02:25:00,8.8,5.7,30.14,SSE,156,1.0,3.0,87,0.00,,SKC,0.00,VWS V14.01,2013-01-25 08:25:00,
2013-01-25 02:27:00,8.0,4.7,30.19,ESE,119,0.0,4.0,86,0.00,,SKC,0.00,VWS V14.01,2013-01-25 08:27:00,
2013-01-25 02:30:00,8.8,5.7,30.11,SSE,156,2.0,3.0,87,0.00,,SKC,0.00,VWS V14.01,2013-01-25 08:30:00,
2013-01-25 02:32:00,8.0,4.7,30.18,ESE,123,2.0,3.0,86,0.00,,SKC,0.00,VWS V14.01,2013-01-25 08:32:00,
2013-01-25 02:35:00,8.9,5.8,30.11,SSE,152,2.0,8.0,87,0.00,,SKC,0.00,VWS V14.01,2013-01-25 08:35:00,
2013-01-25 02:37:00,8.1,4.8,30.18,SE,143,3.0,4.0,86,0.00,,SKC,0.00,VWS V14.01,2013-01-25 08:37:00,
2013-01-25 02:40:00,8.9,5.8,30.11,ESE,115,4.0,4.0,87,0.00,,SKC,0.00,VWS V14.01,2013-01-25 08:40:00,
2013-01-25 02:42:00,8.2,4.9,30.18,SSE,157,1.0,4.0,86,0.00,,SKC,0.00,VWS V14.01,2013-01-25 08:42:00,
2013-01-25 02:45:00,9.0,5.9,30.10,ESE,110,2.0,4.0,87,0.00,,SKC,0.00,VWS V14.01,2013-01-25 08:45:00,
2013-01-25 02:47:00,8.3,5.0,30.16,ESE,115,2.0,3.0,86,0.00,,SKC,0.00,VWS V14.01,2013-01-25 08:47:00,
2013-01-25 02:50:00,9.0,5.9,30.10,SE,133,1.0,3.0,87,0.00,,SKC,0.00,VWS V14.01,2013-01-25 08:50:00,
2013-01-25 02:52:00,8.3,5.0,30.16,ESE,121,1.0,3.0,86,0.00,,SKC,0.00,VWS V14.01,2013-01-25 08:52:00,
2013-01-25 02:55:00,9.1,6.0,30.10,SSE,159,2.0,3.0,87,0.00,,SKC,0.00,VWS V14.01,2013-01-25 08:55:00,
2013-01-25 02:57:00,8.4,5.1,30.16,SSE,148,1.0,3.0,86,0.00,,SKC,0.00,VWS V14.01,2013-01-25 08:57:00,
2013-01-25 03:00:00,9.1,6.0,30.09,SSE,149,2.0,3.0,87,0.00,,SKC,0.00,VWS V14.01,2013-01-25 09:00:00,
2013-01-25 03:02:00,8.4,5.3,30.15,SE,142,0.0,3.0,87,0.00,,SKC,0.00,VWS V14.01,2013-01-25 09:02:00,
2013-01-25 03:05:00,9.2,6.1,30.09,SSE,156,2.0,2.0,87,0.00,,SKC,0.00,VWS V14.01,2013-01-25 09:05:00,
2013-01-25 03:07:00,8.5,5.4,30.15,WSW,245,0.0,3.0,87,0.00,,SKC,0.00,VWS V14.01,2013-01-25 09:07:00,
2013-01-25 03:10:00,9.2,6.1,30.09,SE,135,1.0,2.0,87,0.00,,SKC,0.00,VWS V14.01,2013-01-25 09:10:00,
2013-01-25 03:12:00,8.6,5.5,30.15,SSW,197,1.0,4.0,87,0.00,,SKC,0.00,VWS V14.01,2013-01-25 09:12:00,
2013-01-25 03:15:00,9.2,6.1,30.08,SE,130,1.0,2.0,87,0.00,,SKC,0.00,VWS V14.01,2013-01-25 09:15:00,
2013-01-25 03:17:00,8.7,5.6,30.14,ESE,118,1.0,4.0,87,0.00,,SKC,0.00,VWS V14.01,2013-01-25 09:17:00,
2013-01-25 03:20:00,9.3,6.5,30.08,SE,131,1.0,2.0,88,0.00,,SKC,0.00,VWS V14.01,2013-01-25 09:20:00,
2013-01-25 03:22:00,8.8,5.7,30.14,ESE,122,0.0,4.0,87,0.00,,SKC,0.00,VWS V14.01,2013-01-25 09:22:00,
2013-01-25 03:25:00,9.4,6.6,30.08,SE,130,1.0,3.0,88,0.00,,SKC,0.00,VWS V14.01,2013-01-25 09:25:00,
2013-01-25 03:27:00,8.8,5.7,30.14,SSE,156,1.0,3.0,87,0.00,,SKC,0.00,VWS V14.01,2013-01-25 09:27:00,
2013-01-25 03:30:00,9.4,6.6,30.07,ESE,115,3.0,5.0,88,0.00,,SKC,0.00,VWS V14.01,2013-01-25 09:30:00,
2013-01-25 03:32:00,8.8,5.7,30.11,SSE,156,2.0,3.0,87,0.00,,SKC,0.00,VWS V14.01,2013-01-25 09:32:00,
2013-01-25 03:35:00,9.5,6.7,30.07,SSE,150,2.0,6.0,88,0.00,,SKC,0.00,VWS V14.01,2013-01-25 09:35:00,
2013-01-25 03:37:00,8.9,5.8,30.11,SSE,152,2.0,8.0,87,0.00,,SKC,0.00,VWS V14.01,2013-01-25 09:37:00,
2013-01-25 03:40:00,9.6,6.8,30.07,SE,137,1.0,3.0,88,0.00,,SKC,0.00,VWS V14.01,2013-01-25 09:40:00,
2013-01-25 03:42:00,8.9,5.8,30.11,ESE,115,4.0,4.0,87,0.00,,SKC,0.00,VWS V14.01,2013-01-25 09:42:00,
2013-01-25 03:45:00,9.7,6.9,30.06,SSE,166,2.0,4.0,88,0.00,,SKC,0.00,VWS V14.01,2013-01-25 09:45:00,
2013-01-25 03:47:00,9.0,5.9,30.10,ESE,110,2.0,4.0,87,0.00,,SKC,0.00,VWS V14.01,2013-01-25 09:47:00,
2013-01-25 03:50:00,9.7,6.6,30.06,SSE,161,1.0,3.0,87,0.00,,SKC,0.00,VWS V14.01,2013-01-25 09:50:00,
2013-01-25 03:52:00,9.0,5.9,30.10,SE,133,1.0,3.0,87,0.00,,SKC,0.00,VWS V14.01,2013-01-25 09:52:00,
2013-01-25 03:55:00,9.7,6.6,30.06,SE,144,0.0,3.0,87,0.00,,SKC,0.00,VWS V14.01,2013-01-25 09:55:00,
2013-01-25 03:57:00,9.1,6.0,30.10,SSE,159,2.0,3.0,87,0.00,,SKC,0.00,VWS V14.01,2013-01-25 09:57:00,
2013-01-25 04:00:00,9.7,6.6,30.04,SSE,163,0.0,3.0,87,0.00,,SKC,0.00,VWS V14.01,2013-01-25 10:00:00,
2013-01-25 04:02:00,9.1,6.0,30.09,SSE,149,2.0,3.0,87,0.00,,SKC,0.00,VWS V14.01,2013-01-25 10:02:00,
2013-01-25 04:05:00,9.7,6.6,30.04,South,178,1.0,3.0,87,0.00,,SKC,0.00,VWS V14.01,2013-01-25 10:05:00,
2013-01-25 04:07:00,9.2,6.1,30.09,SSE,156,2.0,2.0,87,0.00,,SKC,0.00,VWS V14.01,2013-01-25 10:07:00,
2013-01-25 04:10:00,9.8,6.7,30.04,SSE,150,1.0,5.0,87,0.00,,SKC,0.00,VWS V14.01,2013-01-25 10:10:00,
2013-01-25 04:12:00,9.2,6.1,30.09,SE,134,1.0,2.0,87,0.00,,SKC,0.00,VWS V14.01,2013-01-25 10:12:00,
2013-01-25 04:15:00,9.9,6.8,30.03,SSE,159,4.0,6.0,87,0.00,,SKC,0.00,VWS V14.01,2013-01-25 10:15:00,
2013-01-25 04:17:00,9.2,6.1,30.08,SE,130,1.0,2.0,87,0.00,,SKC,0.00,VWS V14.01,2013-01-25 10:17:00,
2013-01-25 04:20:00,9.9,6.8,30.03,ESE,114,0.0,4.0,87,0.00,,SKC,0.00,VWS V14.01,2013-01-25 10:20:00,
2013-01-25 04:22:00,9.3,6.5,30.08,SE,131,1.0,2.0,88,0.00,,SKC,0.00,VWS V14.01,2013-01-25 10:22:00,
2013-01-25 04:25:00,9.9,6.8,30.03,ESE,118,1.0,3.0,87,0.00,,SKC,0.00,VWS V14.01,2013-01-25 10:25:00,
2013-01-25 04:27:00,9.4,6.6,30.08,SE,130,1.0,3.0,88,0.00,,SKC,0.00,VWS V14.01,2013-01-25 10:27:00,
2013-01-25 04:30:00,9.9,6.8,30.02,South,169,3.0,4.0,87,0.00,,SKC,0.00,VWS V14.01,2013-01-25 10:30:00,
2013-01-25 04:32:00,9.4,6.6,30.07,ESE,115,3.0,5.0,88,0.00,,SKC,0.00,VWS V14.01,2013-01-25 10:32:00,
2013-01-25 04:35:00,10.0,6.9,30.02,SE,131,2.0,3.0,87,0.00,,SKC,0.00,VWS V14.01,2013-01-25 10:35:00,
2013-01-25 04:37:00,9.5,6.7,30.07,SSE,150,2.0,6.0,88,0.00,,SKC,0.00,VWS V14.01,2013-01-25 10:37:00,
2013-01-25 04:40:00,10.0,6.9,30.02,SW,220,1.0,4.0,87,0.00,,SKC,0.00,VWS V14.01,2013-01-25 10:40:00,
2013-01-25 04:42:00,9.6,6.8,30.07,SE,137,1.0,3.0,88,0.00,,SKC,0.00,VWS V14.01,2013-01-25 10:42:00,
2013-01-25 04:45:00,10.1,7.0,30.01,SW,225,5.0,5.0,87,0.00,,SKC,0.00,VWS V14.01,2013-01-25 10:45:00,
2013-01-25 04:47:00,9.7,6.9,30.06,SSE,166,2.0,4.0,88,0.00,,SKC,0.00,VWS V14.01,2013-01-25 10:47:00,
2013-01-25 04:50:00,10.2,7.1,30.01,SW,220,1.0,5.0,87,0.00,,SKC,0.00,VWS V14.01,2013-01-25 10:50:00,
2013-01-25 04:52:00,9.7,6.6,30.06,SSE,161,1.0,3.0,87,0.00,,SKC,0.00,VWS V14.01,2013-01-25 10:52:00,
2013-01-25 04:55:00,10.2,7.1,30.01,ESE,119,3.0,3.0,87,0.00,,SKC,0.00,VWS V14.01,2013-01-25 10:55:00,
2013-01-25 04:57:00,9.7,6.6,30.06,SE,144,0.0,3.0,87,0.00,,SKC,0.00,VWS V14.01,2013-01-25 10:57:00,
2013-01-25 05:00:00,10.4,7.1,30.00,SSE,150,2.0,6.0,86,0.00,,SKC,0.00,VWS V14.01,2013-01-25 11:00:00,
2013-01-25 05:02:00,9.7,6.6,30.04,SSE,163,1.0,1.0,87,0.00,,SKC,0.00,VWS V14.01,2013-01-25 11:02:00,
2013-01-25 05:05:00,10.4,7.3,30.00,SE,139,1.0,3.0,87,0.00,,SKC,0.00,VWS V14.01,2013-01-25 11:05:00,
2013-01-25 05:07:00,9.7,6.6,30.04,SSE,156,1.0,1.0,87,0.00,,SKC,0.00,VWS V14.01,2013-01-25 11:07:00,
2013-01-25 05:10:00,10.4,7.3,30.00,East,91,3.0,4.0,87,0.00,,SKC,0.00,VWS V14.01,2013-01-25 11:10:00,
2013-01-25 05:12:00,9.8,6.7,30.04,SSE,150,1.0,1.0,87,0.00,,SKC,0.00,VWS V14.01,2013-01-25 11:12:00,
2013-01-25 05:15:00,10.4,7.1,29.99,SW,219,1.0,4.0,86,0.00,,SKC,0.00,VWS V14.01,2013-01-25 11:15:00,
2013-01-25 05:17:00,9.8,6.7,30.03,SE,135,2.0,4.0,87,0.00,,SKC,0.00,VWS V14.01,2013-01-25 11:17:00,
2013-01-25 05:20:00,10.3,7.2,29.99,WNW,303,1.0,4.0,87,0.00,,SKC,0.00,VWS V14.01,2013-01-25 11:20:00,
2013-01-25 05:22:00,9.9,6.8,30.03,SE,128,1.0,1.0,87,0.00,,SKC,0.00,VWS V14.01,2013-01-25 11:22:00,
2013-01-25 05:25:00,10.3,6.9,29.99,SSE,155,1.0,4.0,86,0.00,,SKC,0.00,VWS V14.01,2013-01-25 11:25:00,
2013-01-25 05:27:00,9.9,6.8,30.03,ESE,118,0.0,1.0,87,0.00,,SKC,0.00,VWS V14.01,2013-01-25 11:27:00,
2013-01-25 05:30:00,10.3,7.2,29.99,SSE,148,2.0,3.0,87,0.00,,SKC,0.00,VWS V14.01,2013-01-25 11:30:00,
2013-01-25 05:32:00,9.9,6.8,30.02,South,182,3.0,3.0,87,0.00,,SKC,0.00,VWS V14.01,2013-01-25 11:32:00,
2013-01-25 05:35:00,10.3,6.9,29.99,SSE,156,2.0,5.0,86,0.00,,SKC,0.00,VWS V14.01,2013-01-25 11:35:00,
2013-01-25 05:37:00,10.0,6.9,30.02,SE,131,2.0,2.0,87,0.00,,SKC,0.00,VWS V14.01,2013-01-25 11:37:00,
2013-01-25 05:40:00,10.3,6.9,29.99,South,191,0.0,3.0,86,0.00,,SKC,0.00,VWS V14.01,2013-01-25 11:40:00,
2013-01-25 05:42:00,10.0,6.9,30.02,ESE,103,0.0,1.0,87,0.00,,SKC,0.00,VWS V14.01,2013-01-25 11:42:00,
2013-01-25 05:45:00,10.4,7.1,29.98,ESE,115,2.0,3.0,86,0.00,,SKC,0.00,VWS V14.01,2013-01-25 11:45:00,
2013-01-25 05:47:00,10.1,7.0,30.01,SW,219,3.0,5.0,87,0.00,,SKC,0.00,VWS V14.01,2013-01-25 11:47:00,
2013-01-25 05:50:00,10.4,7.1,29.98,SE,145,1.0,3.0,86,0.00,,SKC,0.00,VWS V14.01,2013-01-25 11:50:00,
2013-01-25 05:52:00,10.2,7.1,30.01,SW,228,1.0,1.0,87,0.00,,SKC,0.00,VWS V14.01,2013-01-25 11:52:00,
2013-01-25 05:55:00,10.4,7.3,29.98,SSE,160,3.0,3.0,87,0.00,,SKC,0.00,VWS V14.01,2013-01-25 11:55:00,
2013-01-25 05:57:00,10.2,7.1,30.01,SE,142,3.0,3.0,87,0.00,,SKC,0.00,VWS V14.01,2013-01-25 11:57:00,
2013-01-25 06:00:00,10.4,7.3,29.97,SE,136,1.0,3.0,87,0.00,,SKC,0.00,VWS V14.01,2013-01-25 12:00:00,
2013-01-25 06:02:00,10.4,7.1,30.00,SSE,168,2.0,2.0,86,0.00,,SKC,0.00,VWS V14.01,2013-01-25 12:02:00,
2013-01-25 06:05:00,10.4,7.3,29.97,SE,144,0.0,3.0,87,0.00,,SKC,0.00,VWS V14.01,2013-01-25 12:05:00,
2013-01-25 06:07:00,10.4,7.3,30.00,SE,130,2.0,2.0,87,0.00,,SKC,0.00,VWS V14.01,2013-01-25 12:07:00,
2013-01-25 06:10:00,10.4,7.3,29.97,SE,133,0.0,2.0,87,0.00,,SKC,0.00,VWS V14.01,2013-01-25 12:10:00,
2013-01-25 06:12:00,10.4,7.3,30.00,SE,139,2.0,3.0,87,0.00,,SKC,0.00,VWS V14.01,2013-01-25 12:12:00,
2013-01-25 06:15:00,10.4,7.3,29.97,SSE,167,0.0,4.0,87,0.00,,SKC,0.00,VWS V14.01,2013-01-25 12:15:00,
2013-01-25 06:17:00,10.3,6.9,29.99,SSE,150,2.0,4.0,86,0.00,,SKC,0.00,VWS V14.01,2013-01-25 12:17:00,
2013-01-25 06:20:00,10.4,7.3,29.97,SE,128,1.0,3.0,87,0.00,,SKC,0.00,VWS V14.01,2013-01-25 12:20:00,
2013-01-25 06:22:00,10.3,7.2,29.99,WSW,254,3.0,3.0,87,0.00,,SKC,0.00,VWS V14.01,2013-01-25 12:22:00,
2013-01-25 06:25:00,10.4,7.3,29.97,ESE,123,1.0,3.0,87,0.00,,SKC,0.00,VWS V14.01,2013-01-25 12:25:00,
2013-01-25 06:27:00,10.3,6.9,29.99,SE,128,1.0,1.0,86,0.00,,SKC,0.00,VWS V14.01,2013-01-25 12:27:00,
2013-01-25 06:30:00,10.4,7.3,29.95,SE,131,0.0,2.0,87,0.00,,SKC,0.00,VWS V14.01,2013-01-25 12:30:00,
2013-01-25 06:32:00,10.3,7.2,29.99,SSW,213,3.0,3.0,87,0.00,,SKC,0.00,VWS V14.01,2013-01-25 12:32:00,
2013-01-25 06:35:00,10.5,7.7,29.95,ESE,117,1.0,3.0,88,0.00,,SKC,0.00,VWS V14.01,2013-01-25 12:35:00,
2013-01-25 06:37:00,10.3,6.9,29.99,South,188,3.0,3.0,86,0.00,,SKC,0.00,VWS V14.01,2013-01-25 12:37:00,
2013-01-25 06:40:00,10.6,7.5,29.95,SE,129,0.0,3.0,87,0.00,,SKC,0.00,VWS V14.01,2013-01-25 12:40:00,
2013-01-25 06:42:00,10.3,6.9,29.99,SSW,202,0.0,0.0,86,0.00,,SKC,0.00,VWS V14.01,2013-01-25 12:42:00,
2013-01-25 06:45:00,10.6,7.5,29.95,SE,146,0.0,3.0,87,0.00,,SKC,0.00,VWS V14.01,2013-01-25 12:45:00,
2013-01-25 06:47:00,10.4,7.1,29.98,ESE,118,1.0,2.0,86,0.00,,SKC,0.00,VWS V14.01,2013-01-25 12:47:00,
2013-01-25 06:50:00,10.6,7.5,29.95,SE,138,0.0,2.0,87,0.00,,SKC,0.00,VWS V14.01,2013-01-25 12:50:00,
2013-01-25 06:52:00,10.4,7.1,29.98,ESE,118,1.0,1.0,86,0.00,,SKC,0.00,VWS V14.01,2013-01-25 12:52:00,
2013-01-25 06:55:00,10.6,7.5,29.95,SE,138,1.0,2.0,87,0.00,,SKC,0.00,VWS V14.01,2013-01-25 12:55:00,
2013-01-25 06:57:00,10.4,7.3,29.98,SE,140,2.0,3.0,87,0.00,,SKC,0.00,VWS V14.01,2013-01-25 12:57:00,
2013-01-25 07:00:00,10.7,7.8,29.95,SSE,165,0.0,2.0,88,0.00,,SKC,0.00,VWS V14.01,2013-01-25 13:00:00,
2013-01-25 07:02:00,10.4,7.3,29.97,SE,134,1.0,1.0,87,0.00,,SKC,0.00,VWS V14.01,2013-01-25 13:02:00,
2013-01-25 07:05:00,10.8,7.9,29.95,SSE,148,0.0,2.0,88,0.00,,SKC,0.00,VWS V14.01,2013-01-25 13:05:00,
2013-01-25 07:07:00,10.4,7.3,29.97,SE,138,0.0,0.0,87,0.00,,SKC,0.00,VWS V14.01,2013-01-25 13:07:00,
2013-01-25 07:10:00,10.9,8.1,29.95,SSW,195,1.0,2.0,88,0.00,,SKC,0.00,VWS V14.01,2013-01-25 13:10:00,
2013-01-25 07:12:00,10.4,7.3,29.97,SE,133,0.0,0.0,87,0.00,,SKC,0.00,VWS V14.01,2013-01-25 13:12:00,
2013-01-25 07:15:00,10.9,8.1,29.94,SE,144,1.0,2.0,88,0.00,,SKC,0.00,VWS V14.01,2013-01-25 13:15:00,
2013-01-25 07:17:00,10.4,7.3,29.97,SSE,159,1.0,1.0,87,0.00,,SKC,0.00,VWS V14.01,2013-01-25 13:17:00,
2013-01-25 07:20:00,11.0,8.1,29.94,SSE,166,1.0,2.0,88,0.00,,SKC,0.00,VWS V14.01,2013-01-25 13:20:00,
2013-01-25 07:22:00,10.4,7.3,29.97,SE,128,1.0,1.0,87,0.00,,SKC,0.00,VWS V14.01,2013-01-25 13:22:00,
2013-01-25 07:25:00,11.0,8.1,29.94,SSE,152,0.0,2.0,88,0.00,,SKC,0.00,VWS V14.01,2013-01-25 13:25:00,
2013-01-25 07:27:00,10.4,7.3,29.97,SSE,149,1.0,1.0,87,0.00,,SKC,0.00,VWS V14.01,2013-01-25 13:27:00,
2013-01-25 07:30:00,11.1,8.2,29.94,South,190,1.0,2.0,88,0.00,,SKC,0.00,VWS V14.01,2013-01-25 13:30:00,
2013-01-25 07:32:00,10.4,7.3,29.95,ESE,105,3.0,3.0,87,0.00,,SKC,0.00,VWS V14.01,2013-01-25 13:32:00,
2013-01-25 07:35:00,11.3,8.4,29.94,SE,134,0.0,1.0,88,0.00,,SKC,0.00,VWS V14.01,2013-01-25 13:35:00,
2013-01-25 07:37:00,10.5,7.7,29.95,ESE,105,2.0,2.0,88,0.00,,SKC,0.00,VWS V14.01,2013-01-25 13:37:00,
2013-01-25 07:40:00,11.4,8.3,29.94,SSE,148,1.0,3.0,87,0.00,,SKC,0.00,VWS V14.01,2013-01-25 13:40:00,
2013-01-25 07:42:00,10.5,7.4,29.95,SSE,149,1.0,1.0,87,0.00,,SKC,0.00,VWS V14.01,2013-01-25 13:42:00,
2013-01-25 07:45:00,11.5,8.4,29.93,SSE,164,0.0,1.0,87,0.00,,SKC,0.00,VWS V14.01,2013-01-25 13:45:00,
2013-01-25 07:47:00,10.6,7.5,29.95,SSE,163,0.0,0.0,87,0.00,,SKC,0.00,VWS V14.01,2013-01-25 13:47:00,
2013-01-25 07:50:00,11.6,8.5,29.93,SSE,157,0.0,1.0,87,0.00,,SKC,0.00,VWS V14.01,2013-01-25 13:50:00,
2013-01-25 07:52:00,10.6,7.5,29.95,SSE,153,2.0,2.0,87,0.00,,SKC,0.00,VWS V14.01,2013-01-25 13:52:00,
2013-01-25 07:55:00,11.7,8.6,29.93,SSE,156,0.0,3.0,87,0.00,,SKC,0.00,VWS V14.01,2013-01-25 13:55:00,
2013-01-25 07:57:00,10.6,7.5,29.95,SE,138,1.0,1.0,87,0.00,,SKC,0.00,VWS V14.01,2013-01-25 13:57:00,
2013-01-25 08:00:00,11.8,8.4,29.93,SSE,163,0.0,0.0,86,0.00,,SKC,0.00,VWS V14.01,2013-01-25 14:00:00,
2013-01-25 08:02:00,10.7,7.8,29.95,SSE,159,0.0,0.0,88,0.00,,SKC,0.00,VWS V14.01,2013-01-25 14:02:00,
2013-01-25 08:05:00,11.9,8.5,29.93,ESE,115,2.0,2.0,86,0.00,,SKC,0.00,VWS V14.01,2013-01-25 14:05:00,
2013-01-25 08:07:00,10.8,7.9,29.95,ESE,113,2.0,2.0,88,0.00,,SKC,0.00,VWS V14.01,2013-01-25 14:07:00,
2013-01-25 08:10:00,12.0,8.6,29.93,South,190,0.0,4.0,86,0.00,,SKC,0.00,VWS V14.01,2013-01-25 14:10:00,
2013-01-25 08:12:00,10.9,8.1,29.95,South,188,0.0,1.0,88,0.00,,SKC,0.00,VWS V14.01,2013-01-25 14:12:00,
2013-01-25 08:15:00,12.1,8.7,29.93,West,259,0.0,3.0,86,0.00,,SKC,0.00,VWS V14.01,2013-01-25 14:15:00,
2013-01-25 08:17:00,10.9,8.1,29.94,SSE,166,1.0,1.0,88,0.00,,SKC,0.00,VWS V14.01,2013-01-25 14:17:00,
2013-01-25 08:20:00,12.2,8.8,29.93,SSE,156,1.0,2.0,86,0.00,,SKC,0.00,VWS V14.01,2013-01-25 14:20:00,
2013-01-25 08:22:00,11.0,8.1,29.94,SE,144,1.0,1.0,88,0.00,,SKC,0.00,VWS V14.01,2013-01-25 14:22:00,
2013-01-25 08:25:00,12.2,8.8,29.93,SW,223,0.0,4.0,86,0.00,,SKC,0.00,VWS V14.01,2013-01-25 14:25:00,
2013-01-25 08:27:00,11.0,8.1,29.94,SSE,156,1.0,1.0,88,0.00,,SKC,0.00,VWS V14.01,2013-01-25 14:27:00,
2013-01-25 08:30:00,12.3,8.9,29.92,SSE,167,0.0,2.0,86,0.00,,SKC,0.00,VWS V14.01,2013-01-25 14:30:00,
2013-01-25 08:32:00,11.1,8.2,29.94,SSW,204,0.0,1.0,88,0.00,,SKC,0.00,VWS V14.01,2013-01-25 14:32:00,
2013-01-25 08:35:00,12.4,9.0,29.92,SSE,159,0.0,4.0,86,0.00,,SKC,0.00,VWS V14.01,2013-01-25 14:35:00,
2013-01-25 08:37:00,11.3,8.4,29.94,SE,135,0.0,0.0,88,0.00,,SKC,0.00,VWS V14.01,2013-01-25 14:37:00,
2013-01-25 08:40:00,12.6,9.2,29.92,South,169,0.0,3.0,86,0.00,,SKC,0.00,VWS V14.01,2013-01-25 14:40:00,
2013-01-25 08:42:00,11.3,8.2,29.94,SSE,163,1.0,1.0,87,0.00,,SKC,0.00,VWS V14.01,2013-01-25 14:42:00,
2013-01-25 08:45:00,12.8,9.7,29.91,SSE,160,1.0,2.0,87,0.00,,SKC,0.00,VWS V14.01,2013-01-25 14:45:00,
2013-01-25 08:47:00,11.5,8.4,29.93,SSE,164,0.0,0.0,87,0.00,,SKC,0.00,VWS V14.01,2013-01-25 14:47:00,
2013-01-25 08:50:00,12.9,9.5,29.91,SE,142,1.0,2.0,86,0.00,,SKC,0.00,VWS V14.01,2013-01-25 14:50:00,
2013-01-25 08:52:00,11.6,8.5,29.93,SSE,157,0.0,0.0,87,0.00,,SKC,0.00,VWS V14.01,2013-01-25 14:52:00,
2013-01-25 08:55:00,13.0,9.6,29.91,SSE,152,0.0,2.0,86,0.00,,SKC,0.00,VWS V14.01,2013-01-25 14:55:00,
2013-01-25 08:58:00,11.7,8.3,29.93,SSE,156,0.0,0.0,86,0.00,,SKC,0.00,VWS V14.01,2013-01-25 14:58:00,
2013-01-25 09:00:00,13.0,9.6,29.91,SSW,211,1.0,3.0,86,0.00,,SKC,0.00,VWS V14.01,2013-01-25 15:00:00,
2013-01-25 09:03:00,11.9,8.8,29.93,SSW,203,0.0,0.0,87,0.00,,SKC,0.00,VWS V14.01,2013-01-25 15:03:00,
2013-01-25 09:05:00,13.1,9.7,29.91,West,279,0.0,2.0,86,0.00,,SKC,0.00,VWS V14.01,2013-01-25 15:05:00,
2013-01-25 09:08:00,11.9,8.5,29.93,SSW,199,0.0,4.0,86,0.00,,SKC,0.00,VWS V14.01,2013-01-25 15:08:00,
2013-01-25 09:10:00,13.2,9.8,29.91,South,190,0.0,2.0,86,0.00,,SKC,0.00,VWS V14.01,2013-01-25 15:10:00,
2013-01-25 09:13:00,12.0,8.6,29.93,SSW,192,0.0,0.0,86,0.00,,SKC,0.00,VWS V14.01,2013-01-25 15:13:00,
2013-01-25 09:15:00,13.5,10.1,29.91,SW,214,1.0,1.0,86,0.00,,SKC,0.00,VWS V14.01,2013-01-25 15:15:00,
2013-01-25 09:18:00,12.1,8.7,29.93,SW,219,0.0,0.0,86,0.00,,SKC,0.00,VWS V14.01,2013-01-25 15:18:00,
2013-01-25 09:20:00,13.6,10.2,29.91,WSW,245,0.0,2.0,86,0.00,,SKC,0.00,VWS V14.01,2013-01-25 15:20:00,
2013-01-25 09:23:00,12.2,8.8,29.93,SW,230,2.0,4.0,86,0.00,,SKC,0.00,VWS V14.01,2013-01-25 15:23:00,
2013-01-25 09:25:00,13.6,9.9,29.91,West,261,1.0,2.0,85,0.00,,SKC,0.00,VWS V14.01,2013-01-25 15:25:00,
2013-01-25 09:28:00,12.2,8.8,29.93,ESE,122,2.0,2.0,86,0.00,,SKC,0.00,VWS V14.01,2013-01-25 15:28:00,
2013-01-25 09:30:00,13.5,9.8,29.91,West,259,1.0,5.0,85,0.00,,SKC,0.00,VWS V14.01,2013-01-25 15:30:00,
2013-01-25 09:33:00,12.3,8.9,29.92,SSW,203,0.0,1.0,86,0.00,,SKC,0.00,VWS V14.01,2013-01-25 15:33:00,
2013-01-25 09:35:00,13.5,10.1,29.91,SSE,163,0.0,3.0,86,0.00,,SKC,0.00,VWS V14.01,2013-01-25 15:35:00,
2013-01-25 09:38:00,12.4,9.0,29.92,SSW,210,2.0,3.0,86,0.00,,SKC,0.00,VWS V14.01,2013-01-25 15:38:00,
2013-01-25 09:40:00,13.6,9.9,29.91,SW,223,0.0,3.0,85,0.00,,SKC,0.00,VWS V14.01,2013-01-25 15:40:00,
2013-01-25 09:43:00,12.6,9.2,29.92,WNW,286,0.0,0.0,86,0.00,,SKC,0.00,VWS V14.01,2013-01-25 15:43:00,
2013-01-25 09:45:00,13.7,10.0,29.90,SE,130,0.0,3.0,85,0.00,,SKC,0.00,VWS V14.01,2013-01-25 15:45:00,
2013-01-25 09:48:00,12.8,9.7,29.91,SW,236,0.0,1.0,87,0.00,,SKC,0.00,VWS V14.01,2013-01-25 15:48:00,
2013-01-25 09:50:00,13.9,10.2,29.90,South,175,1.0,1.0,85,0.00,,SKC,0.00,VWS V14.01,2013-01-25 15:50:00,
2013-01-25 09:53:00,12.9,9.5,29.91,SSE,148,0.0,1.0,86,0.00,,SKC,0.00,VWS V14.01,2013-01-25 15:53:00,
2013-01-25 09:55:00,14.1,10.2,29.90,SSE,161,1.0,2.0,84,0.00,,SKC,0.00,VWS V14.01,2013-01-25 15:55:00,
2013-01-25 09:58:00,13.0,9.6,29.91,SSE,152,0.0,0.0,86,0.00,,SKC,0.00,VWS V14.01,2013-01-25 15:58:00,
2013-01-25 10:00:00,14.2,10.3,29.89,West,280,2.0,3.0,84,0.00,,SKC,0.00,VWS V14.01,2013-01-25 16:00:00,
2013-01-25 10:03:00,13.0,9.6,29.91,SE,130,2.0,2.0,86,0.00,,SKC,0.00,VWS V14.01,2013-01-25 16:03:00,
2013-01-25 10:05:00,14.4,10.7,29.89,WSW,248,2.0,3.0,85,0.00,,SKC,0.00,VWS V14.01,2013-01-25 16:05:00,
2013-01-25 10:08:00,13.1,9.7,29.91,WSW,252,0.0,1.0,86,0.00,,SKC,0.00,VWS V14.01,2013-01-25 16:08:00,
2013-01-25 10:10:00,14.5,10.8,29.89,WSW,249,0.0,2.0,85,0.00,,SKC,0.00,VWS V14.01,2013-01-25 16:10:00,
2013-01-25 10:13:00,13.3,9.9,29.91,South,190,0.0,0.0,86,0.00,,SKC,0.00,VWS V14.01,2013-01-25 16:13:00,
2013-01-25 10:15:00,14.7,11.0,29.89,SSW,210,0.0,2.0,85,0.00,,SKC,0.00,VWS V14.01,2013-01-25 16:15:00,
2013-01-25 10:18:00,13.5,10.1,29.91,SW,225,0.0,1.0,86,0.00,,SKC,0.00,VWS V14.01,2013-01-25 16:18:00,
2013-01-25 10:20:00,14.8,10.6,29.89,SSW,209,0.0,3.0,83,0.00,,SKC,0.00,VWS V14.01,2013-01-25 16:20:00,
2013-01-25 10:23:00,13.7,10.3,29.91,WSW,245,0.0,0.0,86,0.00,,SKC,0.00,VWS V14.01,2013-01-25 16:23:00,
2013-01-25 10:25:00,14.9,10.7,29.89,West,281,0.0,4.0,83,0.00,,SKC,0.00,VWS V14.01,2013-01-25 16:25:00,
2013-01-25 10:28:00,13.6,9.9,29.91,West,263,0.0,1.0,85,0.00,,SKC,0.00,VWS V14.01,2013-01-25 16:28:00,
2013-01-25 10:30:00,14.7,10.8,29.89,West,264,0.0,2.0,84,0.00,,SKC,0.00,VWS V14.01,2013-01-25 16:30:00,
2013-01-25 10:33:00,13.5,9.8,29.91,WSW,248,0.0,1.0,85,0.00,,SKC,0.00,VWS V14.01,2013-01-25 16:33:00,
2013-01-25 10:35:00,14.6,10.4,29.89,WSW,250,0.0,4.0,83,0.00,,SKC,0.00,VWS V14.01,2013-01-25 16:35:00,
2013-01-25 10:38:00,13.5,10.1,29.91,SW,223,0.0,0.0,86,0.00,,SKC,0.00,VWS V14.01,2013-01-25 16:38:00,
2013-01-25 10:40:00,14.5,10.6,29.89,WSW,245,1.0,2.0,84,0.00,,SKC,0.00,VWS V14.01,2013-01-25 16:40:00,
2013-01-25 10:43:00,13.6,9.9,29.91,SSE,164,0.0,0.0,85,0.00,,SKC,0.00,VWS V14.01,2013-01-25 16:43:00,
2013-01-25 10:45:00,14.5,10.3,29.88,WSW,244,0.0,3.0,83,0.00,,SKC,0.00,VWS V14.01,2013-01-25 16:45:00,
2013-01-25 10:48:00,13.8,10.1,29.90,SE,130,0.0,0.0,85,0.00,,SKC,0.00,VWS V14.01,2013-01-25 16:48:00,
2013-01-25 10:50:00,14.6,10.4,29.88,WSW,253,0.0,1.0,83,0.00,,SKC,0.00,VWS V14.01,2013-01-25 16:50:00,
2013-01-25 10:53:00,14.0,10.3,29.90,SSE,152,0.0,1.0,85,0.00,,SKC,0.00,VWS V14.01,2013-01-25 16:53:00,
2013-01-25 10:55:00,14.7,10.5,29.88,WSW,252,0.0,3.0,83,0.00,,SKC,0.00,VWS V14.01,2013-01-25 16:55:00,
2013-01-25 10:58:00,14.1,10.2,29.90,SE,126,1.0,1.0,84,0.00,,SKC,0.00,VWS V14.01,2013-01-25 16:58:00,
2013-01-25 11:00:00,14.7,10.2,29.87,West,265,1.0,2.0,82,0.00,,SKC,0.00,VWS V14.01,2013-01-25 17:00:00,
2013-01-25 11:03:00,14.3,10.4,29.89,West,259,2.0,2.0,84,0.00,,SKC,0.00,VWS V14.01,2013-01-25 17:03:00,
2013-01-25 11:05:00,14.8,10.6,29.87,WSW,253,1.0,3.0,83,0.00,,SKC,0.00,VWS V14.01,2013-01-25 17:05:00,
2013-01-25 11:08:00,14.4,10.5,29.89,WSW,248,0.0,2.0,84,0.00,,SKC,0.00,VWS V14.01,2013-01-25 17:08:00,
2013-01-25 11:10:00,14.9,10.7,29.87,West,265,0.0,3.0,83,0.00,,SKC,0.00,VWS V14.01,2013-01-25 17:10:00,
2013-01-25 11:13:00,14.6,10.9,29.89,West,275,0.0,0.0,85,0.00,,SKC,0.00,VWS V14.01,2013-01-25 17:13:00,
2013-01-25 11:15:00,14.9,10.4,29.87,WSW,250,1.0,3.0,82,0.00,,SKC,0.00,VWS V14.01,2013-01-25 17:15:00,
2013-01-25 11:18:00,14.8,11.1,29.89,West,273,0.0,3.0,85,0.00,,SKC,0.00,VWS V14.01,2013-01-25 17:18:00,
2013-01-25 11:20:00,14.9,10.4,29.87,SW,234,1.0,3.0,82,0.00,,SKC,0.00,VWS V14.01,2013-01-25 17:20:00,
2013-01-25 11:23:00,14.8,10.6,29.89,SW,227,1.0,2.0,83,0.00,,SKC,0.00,VWS V14.01,2013-01-25 17:23:00,
2013-01-25 11:25:00,15.2,11.0,29.87,WSW,249,1.0,2.0,83,0.00,,SKC,0.00,VWS V14.01,2013-01-25 17:25:00,
2013-01-25 11:28:00,14.8,10.6,29.89,WSW,250,1.0,2.0,83,0.00,,SKC,0.00,VWS V14.01,2013-01-25 17:28:00,
2013-01-25 11:30:00,15.4,11.2,29.87,WNW,283,2.0,3.0,83,0.00,,SKC,0.00,VWS V14.01,2013-01-25 17:30:00,
2013-01-25 11:33:00,14.7,10.8,29.89,NW,309,0.0,0.0,84,0.00,,SKC,0.00,VWS V14.01,2013-01-25 17:33:00,
2013-01-25 11:35:00,15.4,10.9,29.87,WSW,254,2.0,3.0,82,0.00,,SKC,0.00,VWS V14.01,2013-01-25 17:35:00,
2013-01-25 11:38:00,14.5,10.3,29.89,West,265,0.0,1.0,83,0.00,,SKC,0.00,VWS V14.01,2013-01-25 17:38:00,
2013-01-25 11:40:00,15.5,11.0,29.87,West,265,1.0,2.0,82,0.00,,SKC,0.00,VWS V14.01,2013-01-25 17:40:00,
2013-01-25 11:43:00,14.5,10.6,29.89,WSW,257,0.0,1.0,84,0.00,,SKC,0.00,VWS V14.01,2013-01-25 17:43:00,
2013-01-25 11:45:00,15.5,10.4,29.86,WNW,287,0.0,3.0,80,0.00,,SKC,0.00,VWS V14.01,2013-01-25 17:45:00,
2013-01-25 11:48:00,14.5,10.3,29.88,WSW,245,0.0,0.0,83,0.00,,SKC,0.00,VWS V14.01,2013-01-25 17:48:00,
2013-01-25 11:50:00,15.5,11.0,29.86,WNW,284,1.0,2.0,82,0.00,,SKC,0.00,VWS V14.01,2013-01-25 17:50:00,
2013-01-25 11:53:00,14.7,10.8,29.88,WSW,257,0.0,1.0,84,0.00,,SKC,0.00,VWS V14.01,2013-01-25 17:53:00,
2013-01-25 11:55:00,15.5,10.7,29.86,WSW,245,1.0,2.0,81,0.00,,SKC,0.00,VWS V14.01,2013-01-25 17:55:00,
2013-01-25 11:58:00,14.7,10.5,29.88,West,277,0.0,1.0,83,0.00,,SKC,0.00,VWS V14.01,2013-01-25 17:58:00,
2013-01-25 12:00:00,15.4,10.6,29.86,WSW,248,1.0,3.0,81,0.00,,SKC,0.00,VWS V14.01,2013-01-25 18:00:00,
2013-01-25 12:03:00,14.7,10.2,29.87,West,281,0.0,1.0,82,0.00,,SKC,0.00,VWS V14.01,2013-01-25 18:03:00,
2013-01-25 12:05:00,15.4,10.6,29.86,WSW,248,1.0,4.0,81,0.00,,SKC,0.00,VWS V14.01,2013-01-25 18:05:00,
2013-01-25 12:08:00,14.8,10.6,29.87,WSW,248,2.0,3.0,83,0.00,,SKC,0.00,VWS V14.01,2013-01-25 18:08:00,
2013-01-25 12:10:00,15.4,10.9,29.86,West,264,0.0,3.0,82,0.00,,SKC,0.00,VWS V14.01,2013-01-25 18:10:00,
2013-01-25 12:13:00,14.9,10.7,29.87,West,277,3.0,3.0,83,0.00,,SKC,0.00,VWS V14.01,2013-01-25 18:13:00,
2013-01-25 12:15:00,15.5,10.7,29.87,WSW,257,1.0,3.0,81,0.00,,SKC,0.00,VWS V14.01,2013-01-25 18:15:00,
2013-01-25 12:18:00,14.9,10.4,29.87,WSW,242,0.0,2.0,82,0.00,,SKC,0.00,VWS V14.01,2013-01-25 18:18:00,
2013-01-25 12:20:00,15.4,10.4,29.87,West,271,1.0,6.0,80,0.00,,SKC,0.00,VWS V14.01,2013-01-25 18:20:00,
2013-01-25 12:23:00,14.9,10.4,29.87,SW,234,0.0,1.0,82,0.00,,SKC,0.00,VWS V14.01,2013-01-25 18:23:00,
2013-01-25 12:25:00,15.4,10.9,29.87,WNW,287,2.0,2.0,82,0.00,,SKC,0.00,VWS V14.01,2013-01-25 18:25:00,
2013-01-25 12:28:00,15.2,11.0,29.87,WSW,253,1.0,1.0,83,0.00,,SKC,0.00,VWS V14.01,2013-01-25 18:28:00,
2013-01-25 12:30:00,15.6,11.1,29.87,West,270,1.0,2.0,82,0.00,,SKC,0.00,VWS V14.01,2013-01-25 18:30:00,
2013-01-25 12:33:00,15.4,10.9,29.87,WSW,254,2.0,3.0,82,0.00,,SKC,0.00,VWS V14.01,2013-01-25 18:33:00,
2013-01-25 12:35:00,15.5,10.4,29.87,West,267,2.0,4.0,80,0.00,,SKC,0.00,VWS V14.01,2013-01-25 18:35:00,
2013-01-25 12:38:00,15.5,11.0,29.87,WSW,253,0.0,2.0,82,0.00,,SKC,0.00,VWS V14.01,2013-01-25 18:38:00,
2013-01-25 12:40:00,15.5,10.7,29.87,WSW,250,0.0,3.0,81,0.00,,SKC,0.00,VWS V14.01,2013-01-25 18:40:00,
2013-01-25 12:43:00,15.6,11.1,29.87,WNW,282,1.0,2.0,82,0.00,,SKC,0.00,VWS V14.01,2013-01-25 18:43:00,
2013-01-25 12:45:00,15.9,11.1,29.87,WSW,258,1.0,1.0,81,0.00,,SKC,0.00,VWS V14.01,2013-01-25 18:45:00,
2013-01-25 12:48:00,15.5,10.7,29.86,West,268,1.0,1.0,81,0.00,,SKC,0.00,VWS V14.01,2013-01-25 18:48:00,
2013-01-25 12:50:00,15.8,10.4,29.87,West,275,0.0,4.0,79,0.00,,SKC,0.00,VWS V14.01,2013-01-25 18:50:00,
2013-01-25 12:53:00,15.4,10.6,29.86,SW,234,2.0,2.0,81,0.00,,SKC,0.00,VWS V14.01,2013-01-25 18:53:00,
2013-01-25 12:55:00,15.7,10.6,29.87,WNW,289,3.0,6.0,80,0.00,,SKC,0.00,VWS V14.01,2013-01-25 18:55:00,
2013-01-25 12:58:00,15.5,10.7,29.86,WSW,257,2.0,3.0,81,0.00,,SKC,0.00,VWS V14.01,2013-01-25 18:58:00,
2013-01-25 13:00:00,15.7,10.9,29.88,WNW,285,2.0,3.0,81,0.00,,SKC,0.00,VWS V14.01,2013-01-25 19:00:00,
2013-01-25 13:03:00,15.4,10.9,29.86,WNW,290,2.0,3.0,82,0.00,,SKC,0.00,VWS V14.01,2013-01-25 19:03:00,
2013-01-25 13:05:00,15.7,10.9,29.88,WNW,296,3.0,4.0,81,0.00,,SKC,0.00,VWS V14.01,2013-01-25 19:05:00,
2013-01-25 13:08:00,15.4,10.6,29.86,WNW,286,2.0,3.0,81,0.00,,SKC,0.00,VWS V14.01,2013-01-25 19:08:00,
2013-01-25 13:10:00,15.6,10.8,29.88,West,261,2.0,3.0,81,0.00,,SKC,0.00,VWS V14.01,2013-01-25 19:10:00,
2013-01-25 13:13:00,15.5,11.0,29.86,West,259,1.0,2.0,82,0.00,,SKC,0.00,VWS V14.01,2013-01-25 19:13:00,
2013-01-25 13:15:00,15.9,11.4,29.88,West,280,0.0,3.0,82,0.00,,SKC,0.00,VWS V14.01,2013-01-25 19:15:00,
2013-01-25 13:18:00,15.5,10.7,29.87,WSW,245,1.0,6.0,81,0.00,,SKC,0.00,VWS V14.01,2013-01-25 19:18:00,
2013-01-25 13:20:00,16.0,10.6,29.88,West,269,2.0,3.0,79,0.00,,SKC,0.00,VWS V14.01,2013-01-25 19:20:00,
2013-01-25 13:23:00,15.4,10.6,29.87,WSW,257,0.0,1.0,81,0.00,,SKC,0.00,VWS V14.01,2013-01-25 19:23:00,
2013-01-25 13:25:00,15.9,10.3,29.88,West,280,2.0,3.0,78,0.00,,SKC,0.00,VWS V14.01,2013-01-25 19:25:00,
2013-01-25 13:28:00,15.5,11.0,29.87,WNW,284,0.0,2.0,82,0.00,,SKC,0.00,VWS V14.01,2013-01-25 19:28:00,
2013-01-25 13:30:00,15.7,10.4,29.89,WNW,283,2.0,6.0,79,0.00,,SKC,0.00,VWS V14.01,2013-01-25 19:30:00,
2013-01-25 13:33:00,15.6,10.8,29.87,WSW,248,2.0,3.0,81,0.00,,SKC,0.00,VWS V14.01,2013-01-25 19:33:00,
2013-01-25 13:35:00,15.4,10.4,29.89,WSW,253,2.0,5.0,80,0.00,,SKC,0.00,VWS V14.01,2013-01-25 19:35:00,
2013-01-25 13:38:00,15.4,10.4,29.87,West,261,1.0,3.0,80,0.00,,SKC,0.00,VWS V14.01,2013-01-25 19:38:00,
2013-01-25 13:40:00,15.3,10.5,29.89,West,280,2.0,3.0,81,0.00,,SKC,0.00,VWS V14.01,2013-01-25 19:40:00,
2013-01-25 13:43:00,15.6,11.1,29.87,NE,49,0.0,1.0,82,0.00,,SKC,0.00,VWS V14.01,2013-01-25 19:43:00,
2013-01-25 13:45:00,15.3,10.8,29.90,NE,35,0.0,3.0,82,0.00,,SKC,0.00,VWS V14.01,2013-01-25 19:45:00,
2013-01-25 13:48:00,15.9,10.8,29.87,WSW,258,2.0,4.0,80,0.00,,SKC,0.00,VWS V14.01,2013-01-25 19:48:00,
2013-01-25 13:50:00,15.2,11.0,29.90,WNW,288,0.0,3.0,83,0.00,,SKC,0.00,VWS V14.01,2013-01-25 19:50:00,
2013-01-25 13:53:00,15.8,10.5,29.87,West,275,0.0,1.0,79,0.00,,SKC,0.00,VWS V14.01,2013-01-25 19:53:00,
2013-01-25 13:55:00,15.2,11.0,29.90,WSW,250,1.0,2.0,83,0.00,,SKC,0.00,VWS V14.01,2013-01-25 19:55:00,
2013-01-25 13:58:00,15.7,10.6,29.87,WSW,250,1.0,3.0,80,0.00,,SKC,0.00,VWS V14.01,2013-01-25 19:58:00,
2013-01-25 14:00:00,15.3,10.5,29.90,WNW,294,2.0,3.0,81,0.00,,SKC,0.00,VWS V14.01,2013-01-25 20:00:00,
2013-01-25 14:03:00,15.7,10.9,29.88,WSW,258,2.0,3.0,81,0.00,,SKC,0.00,VWS V14.01,2013-01-25 20:03:00,
2013-01-25 14:05:00,15.2,11.0,29.90,West,260,0.0,3.0,83,0.00,,SKC,0.00,VWS V14.01,2013-01-25 20:05:00,
2013-01-25 14:08:00,15.6,10.8,29.88,West,271,0.0,3.0,81,0.00,,SKC,0.00,VWS V14.01,2013-01-25 20:08:00,
2013-01-25 14:10:00,15.2,10.7,29.90,WNW,286,0.0,2.0,82,0.00,,SKC,0.00,VWS V14.01,2013-01-25 20:10:00,
2013-01-25 14:13:00,15.6,10.8,29.88,West,275,1.0,3.0,81,0.00,,SKC,0.00,VWS V14.01,2013-01-25 20:13:00,
2013-01-25 14:15:00,15.3,10.5,29.92,WSW,254,0.0,2.0,81,0.00,,SKC,0.00,VWS V14.01,2013-01-25 20:15:00,
2013-01-25 14:18:00,15.9,10.8,29.88,West,261,0.0,2.0,80,0.00,,SKC,0.00,VWS V14.01,2013-01-25 20:18:00,
2013-01-25 14:20:00,15.4,10.6,29.92,WSW,250,0.0,5.0,81,0.00,,SKC,0.00,VWS V14.01,2013-01-25 20:20:00,
2013-01-25 14:23:00,16.0,10.6,29.88,West,261,2.0,3.0,79,0.00,,SKC,0.00,VWS V14.01,2013-01-25 20:23:00,
2013-01-25 14:25:00,15.4,10.4,29.92,West,270,0.0,1.0,80,0.00,,SKC,0.00,VWS V14.01,2013-01-25 20:25:00,
2013-01-25 14:28:00,15.8,10.5,29.88,West,273,3.0,6.0,79,0.00,,SKC,0.00,VWS V14.01,2013-01-25 20:28:00,
2013-01-25 14:30:00,15.4,10.4,29.93,West,272,0.0,0.0,80,0.00,,SKC,0.00,VWS V14.01,2013-01-25 20:30:00,
2013-01-25 14:33:00,15.6,10.5,29.89,West,261,2.0,3.0,80,0.00,,SKC,0.00,VWS V14.01,2013-01-25 20:33:00,
2013-01-25 14:35:00,15.3,10.5,29.93,West,269,0.0,0.0,81,0.00,,SKC,0.00,VWS V14.01,2013-01-25 20:35:00,
2013-01-25 14:38:00,15.3,10.2,29.89,West,279,0.0,2.0,80,0.00,,SKC,0.00,VWS V14.01,2013-01-25 20:38:00,
2013-01-25 14:40:00,15.1,10.3,29.93,WNW,284,2.0,3.0,81,0.00,,SKC,0.00,VWS V14.01,2013-01-25 20:40:00,
2013-01-25 14:43:00,15.3,10.5,29.89,West,261,0.0,3.0,81,0.00,,SKC,0.00,VWS V14.01,2013-01-25 20:43:00,
2013-01-25 14:45:00,14.8,10.0,29.93,WNW,289,1.0,4.0,81,0.00,,SKC,0.00,VWS V14.01,2013-01-25 20:45:00,
2013-01-25 14:48:00,15.3,11.1,29.90,NW,306,1.0,3.0,83,0.00,,SKC,0.00,VWS V14.01,2013-01-25 20:48:00,
2013-01-25 14:50:00,14.6,9.8,29.93,SW,234,1.0,4.0,81,0.00,,SKC,0.00,VWS V14.01,2013-01-25 20:50:00,
2013-01-25 14:53:00,15.2,11.0,29.90,NW,310,1.0,1.0,83,0.00,,SKC,0.00,VWS V14.01,2013-01-25 20:53:00,
2013-01-25 14:55:00,14.6,9.8,29.93,West,273,1.0,3.0,81,0.00,,SKC,0.00,VWS V14.01,2013-01-25 20:55:00,
2013-01-25 14:59:00,15.3,11.1,29.90,West,269,1.0,1.0,83,0.00,,SKC,0.00,VWS V14.01,2013-01-25 20:59:00,
2013-01-25 15:00:00,14.5,10.0,29.94,West,275,0.0,3.0,82,0.00,,SKC,0.00,VWS V14.01,2013-01-25 21:00:00,
2013-01-25 15:04:00,15.2,10.4,29.90,West,269,0.0,2.0,81,0.00,,SKC,0.00,VWS V14.01,2013-01-25 21:04:00,
2013-01-25 15:05:00,14.5,9.7,29.94,WNW,292,1.0,1.0,81,0.00,,SKC,0.00,VWS V14.01,2013-01-25 21:05:00,
2013-01-25 15:09:00,15.2,10.7,29.90,West,280,0.0,2.0,82,0.00,,SKC,0.00,VWS V14.01,2013-01-25 21:09:00,
2013-01-25 15:10:00,14.4,9.6,29.94,West,277,0.0,1.0,81,0.00,,SKC,0.00,VWS V14.01,2013-01-25 21:10:00,
2013-01-25 15:14:00,15.3,10.8,29.90,West,277,0.0,2.0,82,0.00,,SKC,0.00,VWS V14.01,2013-01-25 21:14:00,
2013-01-25 15:15:00,14.4,9.9,29.94,WNW,283,0.0,2.0,82,0.00,,SKC,0.00,VWS V14.01,2013-01-25 21:15:00,
2013-01-25 15:19:00,15.4,10.6,29.92,WSW,250,0.0,5.0,81,0.00,,SKC,0.00,VWS V14.01,2013-01-25 21:19:00,
2013-01-25 15:20:00,14.3,9.8,29.94,WNW,287,3.0,4.0,82,0.00,,SKC,0.00,VWS V14.01,2013-01-25 21:20:00,
2013-01-25 15:24:00,15.4,10.4,29.92,SW,219,0.0,1.0,80,0.00,,SKC,0.00,VWS V14.01,2013-01-25 21:24:00,
2013-01-25 15:25:00,14.2,9.4,29.94,WSW,250,1.0,4.0,81,0.00,,SKC,0.00,VWS V14.01,2013-01-25 21:25:00,
2013-01-25 15:29:00,15.4,10.4,29.92,West,280,0.0,0.0,80,0.00,,SKC,0.00,VWS V14.01,2013-01-25 21:29:00,
2013-01-25 15:30:00,14.0,9.5,29.95,WNW,286,1.0,3.0,82,0.00,,SKC,0.00,VWS V14.01,2013-01-25 21:30:00,
2013-01-25 15:34:00,15.3,10.2,29.93,West,275,0.0,0.0,80,0.00,,SKC,0.00,VWS V14.01,2013-01-25 21:34:00,
2013-01-25 15:35:00,13.9,9.7,29.95,West,273,1.0,3.0,83,0.00,,SKC,0.00,VWS V14.01,2013-01-25 21:35:00,
2013-01-25 15:39:00,15.2,10.4,29.93,West,260,2.0,3.0,81,0.00,,SKC,0.00,VWS V14.01,2013-01-25 21:39:00,
2013-01-25 15:40:00,13.8,9.6,29.95,WSW,254,2.0,4.0,83,0.00,,SKC,0.00,VWS V14.01,2013-01-25 21:40:00,
2013-01-25 15:44:00,15.0,10.2,29.93,WNW,283,1.0,4.0,81,0.00,,SKC,0.00,VWS V14.01,2013-01-25 21:44:00,
2013-01-25 15:45:00,13.7,9.5,29.96,West,264,0.0,8.0,83,0.00,,SKC,0.00,VWS V14.01,2013-01-25 21:45:00,
2013-01-25 15:49:00,14.7,9.9,29.93,WNW,282,3.0,3.0,81,0.00,,SKC,0.00,VWS V14.01,2013-01-25 21:49:00,
2013-01-25 15:50:00,13.6,9.7,29.96,West,274,1.0,3.0,84,0.00,,SKC,0.00,VWS V14.01,2013-01-25 21:50:00,
2013-01-25 15:54:00,14.6,9.8,29.93,WNW,289,2.0,3.0,81,0.00,,SKC,0.00,VWS V14.01,2013-01-25 21:54:00,
2013-01-25 15:55:00,13.5,9.6,29.96,West,273,1.0,4.0,84,0.00,,SKC,0.00,VWS V14.01,2013-01-25 21:55:00,
2013-01-25 15:59:00,14.5,9.7,29.93,West,277,0.0,1.0,81,0.00,,SKC,0.00,VWS V14.01,2013-01-25 21:59:00,
2013-01-25 16:00:00,13.4,9.7,29.97,WNW,282,0.0,2.0,85,0.00,,SKC,0.00,VWS V14.01,2013-01-25 22:00:00,
2013-01-25 16:04:00,14.5,9.7,29.94,West,269,0.0,1.0,81,0.00,,SKC,0.00,VWS V14.01,2013-01-25 22:04:00,
2013-01-25 16:05:00,13.3,9.4,29.97,West,276,2.0,3.0,84,0.00,,SKC,0.00,VWS V14.01,2013-01-25 22:05:00,
2013-01-25 16:09:00,14.5,9.7,29.94,West,260,0.0,1.0,81,0.00,,SKC,0.00,VWS V14.01,2013-01-25 22:09:00,
2013-01-25 16:10:00,13.3,9.4,29.97,West,276,0.0,5.0,84,0.00,,SKC,0.00,VWS V14.01,2013-01-25 22:10:00,
2013-01-25 16:14:00,14.4,9.9,29.94,West,279,1.0,1.0,82,0.00,,SKC,0.00,VWS V14.01,2013-01-25 22:14:00,
2013-01-25 16:15:00,13.1,9.2,29.98,West,273,3.0,3.0,84,0.00,,SKC,0.00,VWS V14.01,2013-01-25 22:15:00,
2013-01-25 16:19:00,14.4,9.9,29.94,West,277,0.0,1.0,82,0.00,,SKC,0.00,VWS V14.01,2013-01-25 22:19:00,
2013-01-25 16:20:00,12.8,8.9,29.98,West,275,0.0,3.0,84,0.00,,SKC,0.00,VWS V14.01,2013-01-25 22:20:00,
2013-01-25 16:24:00,14.3,9.6,29.94,WNW,285,2.0,4.0,81,0.00,,SKC,0.00,VWS V14.01,2013-01-25 22:24:00,
2013-01-25 16:25:00,12.6,8.7,29.98,West,259,1.0,3.0,84,0.00,,SKC,0.00,VWS V14.01,2013-01-25 22:25:00,
2013-01-25 16:29:00,14.1,9.6,29.94,WNW,294,0.0,3.0,82,0.00,,SKC,0.00,VWS V14.01,2013-01-25 22:29:00,
2013-01-25 16:30:00,12.4,8.5,29.98,West,280,0.0,2.0,84,0.00,,SKC,0.00,VWS V14.01,2013-01-25 22:30:00,
2013-01-25 16:34:00,14.0,9.5,29.95,West,273,1.0,3.0,82,0.00,,SKC,0.00,VWS V14.01,2013-01-25 22:34:00,
2013-01-25 16:35:00,12.2,8.6,29.98,WNW,283,0.0,1.0,85,0.00,,SKC,0.00,VWS V14.01,2013-01-25 22:35:00,
2013-01-25 16:39:00,13.9,9.7,29.95,West,280,1.0,2.0,83,0.00,,SKC,0.00,VWS V14.01,2013-01-25 22:39:00,
2013-01-25 16:40:00,12.0,8.4,29.98,West,267,0.0,1.0,85,0.00,,SKC,0.00,VWS V14.01,2013-01-25 22:40:00,
2013-01-25 16:44:00,13.8,9.9,29.95,WNW,282,1.0,2.0,84,0.00,,SKC,0.00,VWS V14.01,2013-01-25 22:44:00,
2013-01-25 16:45:00,11.8,8.2,29.98,WNW,282,1.0,1.0,85,0.00,,SKC,0.00,VWS V14.01,2013-01-25 22:45:00,
2013-01-25 16:49:00,13.7,9.8,29.96,West,259,1.0,3.0,84,0.00,,SKC,0.00,VWS V14.01,2013-01-25 22:49:00,
2013-01-25 16:50:00,11.6,8.0,29.98,West,280,1.0,2.0,85,0.00,,SKC,0.00,VWS V14.01,2013-01-25 22:50:00,
2013-01-25 16:54:00,13.6,9.7,29.96,WNW,283,4.0,4.0,84,0.00,,SKC,0.00,VWS V14.01,2013-01-25 22:54:00,
2013-01-25 16:55:00,11.5,8.1,29.98,West,272,1.0,1.0,86,0.00,,SKC,0.00,VWS V14.01,2013-01-25 22:55:00,
2013-01-25 16:59:00,13.5,9.6,29.96,West,275,1.0,1.0,84,0.00,,SKC,0.00,VWS V14.01,2013-01-25 22:59:00,
2013-01-25 17:00:00,11.4,8.0,29.99,West,279,1.0,4.0,86,0.00,,SKC,0.00,VWS V14.01,2013-01-25 23:00:00,
2013-01-25 17:04:00,13.4,9.5,29.97,WSW,244,1.0,2.0,84,0.00,,SKC,0.00,VWS V14.01,2013-01-25 23:04:00,
2013-01-25 17:05:00,11.2,7.8,29.99,West,279,0.0,2.0,86,0.00,,SKC,0.00,VWS V14.01,2013-01-25 23:05:00,
2013-01-25 17:09:00,13.3,9.4,29.97,West,263,1.0,4.0,84,0.00,,SKC,0.00,VWS V14.01,2013-01-25 23:09:00,
2013-01-25 17:10:00,11.0,7.9,29.99,West,280,0.0,2.0,87,0.00,,SKC,0.00,VWS V14.01,2013-01-25 23:10:00,
2013-01-25 17:14:00,13.2,9.3,29.97,West,280,0.0,0.0,84,0.00,,SKC,0.00,VWS V14.01,2013-01-25 23:14:00,
2013-01-25 17:15:00,10.8,7.7,30.00,West,264,1.0,1.0,87,0.00,,SKC,0.00,VWS V14.01,2013-01-25 23:15:00,
2013-01-25 17:19:00,13.0,9.1,29.98,West,279,1.0,3.0,84,0.00,,SKC,0.00,VWS V14.01,2013-01-25 23:19:00,
2013-01-25 17:20:00,10.6,7.5,30.00,West,278,0.0,1.0,87,0.00,,SKC,0.00,VWS V14.01,2013-01-25 23:20:00,
2013-01-25 17:24:00,12.7,8.8,29.98,West,281,2.0,3.0,84,0.00,,SKC,0.00,VWS V14.01,2013-01-25 23:24:00,
2013-01-25 17:25:00,10.4,7.3,30.00,West,275,1.0,2.0,87,0.00,,SKC,0.00,VWS V14.01,2013-01-25 23:25:00,
2013-01-25 17:29:00,12.6,8.7,29.98,West,276,1.0,2.0,84,0.00,,SKC,0.00,VWS V14.01,2013-01-25 23:29:00,
2013-01-25 17:30:00,10.3,7.2,30.01,West,276,0.0,1.0,87,0.00,,SKC,0.00,VWS V14.01,2013-01-25 23:30:00,
2013-01-25 17:34:00,12.4,8.8,29.98,WNW,283,0.0,1.0,85,0.00,,SKC,0.00,VWS V14.01,2013-01-25 23:34:00,
2013-01-25 17:35:00,10.2,7.1,30.01,West,278,0.0,1.0,87,0.00,,SKC,0.00,VWS V14.01,2013-01-25 23:35:00,
2013-01-25 17:39:00,12.1,8.5,29.98,WNW,282,0.0,1.0,85,0.00,,SKC,0.00,VWS V14.01,2013-01-25 23:39:00,
2013-01-25 17:40:00,9.9,6.8,30.01,West,279,0.0,0.0,87,0.00,,SKC,0.00,VWS V14.01,2013-01-25 23:40:00,
2013-01-25 17:44:00,11.9,8.3,29.98,West,266,0.0,1.0,85,0.00,,SKC,0.00,VWS V14.01,2013-01-25 23:44:00,
2013-01-25 17:45:00,9.5,6.4,30.01,West,279,0.0,0.0,87,0.00,,SKC,0.00,VWS V14.01,2013-01-25 23:45:00,
2013-01-25 17:49:00,11.7,8.1,29.98,WNW,283,0.0,2.0,85,0.00,,SKC,0.00,VWS V14.01,2013-01-25 23:49:00,
2013-01-25 17:50:00,9.1,6.0,30.01,West,279,0.0,0.0,87,0.00,,SKC,0.00,VWS V14.01,2013-01-25 23:50:00,
2013-01-25 17:54:00,11.6,8.2,29.98,West,270,0.0,1.0,86,0.00,,SKC,0.00,VWS V14.01,2013-01-25 23:54:00,
2013-01-25 17:55:00,9.0,6.2,30.01,West,279,0.0,0.0,88,0.00,,SKC,0.00,VWS V14.01,2013-01-25 23:55:00,
2013-01-25 17:59:00,11.4,8.0,29.98,West,281,2.0,2.0,86,0.00,,SKC,0.00,VWS V14.01,2013-01-25 23:59:00,
2013-01-25 18:00:00,9.1,6.3,30.01,West,279,0.0,0.0,88,0.00,,SKC,0.00,VWS V14.01,2013-01-26 00:00:00,
2013-01-25 18:04:00,11.3,7.9,29.99,WNW,283,2.0,2.0,86,0.00,,SKC,0.00,VWS V14.01,2013-01-26 00:04:00,
2013-01-25 18:05:00,9.2,6.6,30.01,West,274,1.0,1.0,89,0.00,,SKC,0.00,VWS V14.01,2013-01-26 00:05:00,
2013-01-25 18:09:00,11.1,7.7,29.99,West,279,0.0,0.0,86,0.00,,SKC,0.00,VWS V14.01,2013-01-26 00:09:00,
2013-01-25 18:10:00,9.5,6.7,30.01,West,271,0.0,1.0,88,0.00,,SKC,0.00,VWS V14.01,2013-01-26 00:10:00,
2013-01-25 18:14:00,11.0,7.9,29.99,West,280,0.0,0.0,87,0.00,,SKC,0.00,VWS V14.01,2013-01-26 00:14:00,
2013-01-25 18:15:00,9.5,6.7,30.02,West,276,0.0,2.0,88,0.00,,SKC,0.00,VWS V14.01,2013-01-26 00:15:00,
2013-01-25 18:19:00,10.7,7.6,30.00,West,275,0.0,1.0,87,0.00,,SKC,0.00,VWS V14.01,2013-01-26 00:19:00,
2013-01-25 18:20:00,9.6,6.8,30.02,West,277,0.0,0.0,88,0.00,,SKC,0.00,VWS V14.01,2013-01-26 00:20:00,
2013-01-25 18:24:00,10.6,7.5,30.00,West,275,0.0,2.0,87,0.00,,SKC,0.00,VWS V14.01,2013-01-26 00:24:00,
2013-01-25 18:25:00,9.7,6.6,30.02,West,277,0.0,0.0,87,0.00,,SKC,0.00,VWS V14.01,2013-01-26 00:25:00,
2013-01-25 18:29:00,10.4,7.3,30.00,West,276,0.0,1.0,87,0.00,,SKC,0.00,VWS V14.01,2013-01-26 00:29:00,
2013-01-25 18:30:00,9.6,6.5,30.03,WNW,287,0.0,0.0,87,0.00,,SKC,0.00,VWS V14.01,2013-01-26 00:30:00,
2013-01-25 18:34:00,10.3,7.2,30.01,West,276,0.0,0.0,87,0.00,,SKC,0.00,VWS V14.01,2013-01-26 00:34:00,
2013-01-25 18:35:00,9.6,6.5,30.03,West,271,0.0,2.0,87,0.00,,SKC,0.00,VWS V14.01,2013-01-26 00:35:00,
2013-01-25 18:39:00,10.1,7.0,30.01,West,279,0.0,0.0,87,0.00,,SKC,0.00,VWS V14.01,2013-01-26 00:39:00,
2013-01-25 18:40:00,9.5,6.4,30.03,West,280,1.0,2.0,87,0.00,,SKC,0.00,VWS V14.01,2013-01-26 00:40:00,
2013-01-25 18:44:00,9.8,6.7,30.01,West,279,0.0,0.0,87,0.00,,SKC,0.00,VWS V14.01,2013-01-26 00:44:00,
2013-01-25 18:45:00,9.5,6.4,30.03,West,279,1.0,2.0,87,0.00,,SKC,0.00,VWS V14.01,2013-01-26 00:45:00,
2013-01-25 18:49:00,9.4,6.3,30.01,West,279,0.0,0.0,87,0.00,,SKC,0.00,VWS V14.01,2013-01-26 00:49:00,
2013-01-25 18:50:00,9.5,6.4,30.03,West,279,1.0,3.0,87,0.00,,SKC,0.00,VWS V14.01,2013-01-26 00:50:00,
2013-01-25 18:54:00,9.0,6.2,30.01,West,279,0.0,0.0,88,0.00,,SKC,0.00,VWS V14.01,2013-01-26 00:54:00,
2013-01-25 18:55:00,9.4,6.1,30.03,West,272,0.0,1.0,86,0.00,,SKC,0.00,VWS V14.01,2013-01-26 00:55:00,
2013-01-25 18:59:00,9.1,6.5,30.01,West,279,0.0,0.0,89,0.00,,SKC,0.00,VWS V14.01,2013-01-26 00:59:00,
2013-01-25 19:00:00,9.3,6.2,30.03,WNW,286,0.0,0.0,87,0.00,,SKC,0.00,VWS V14.01,2013-01-26 01:00:00,
2013-01-25 19:04:00,9.0,6.2,30.01,West,279,0.0,0.0,88,0.00,,SKC,0.00,VWS V14.01,2013-01-26 01:04:00,
2013-01-25 19:05:00,9.1,6.0,30.03,West,273,0.0,0.0,87,0.00,,SKC,0.00,VWS V14.01,2013-01-26 01:05:00,
2013-01-25 19:09:00,9.4,6.8,30.01,West,271,0.0,1.0,89,0.00,,SKC,0.00,VWS V14.01,2013-01-26 01:09:00,
2013-01-25 19:10:00,9.1,6.0,30.03,West,277,0.0,0.0,87,0.00,,SKC,0.00,VWS V14.01,2013-01-26 01:10:00,
2013-01-25 19:14:00,9.5,6.7,30.01,West,277,0.0,1.0,88,0.00,,SKC,0.00,VWS V14.01,2013-01-26 01:14:00,
2013-01-25 19:15:00,8.8,5.5,30.04,West,277,0.0,0.0,86,0.00,,SKC,0.00,VWS V14.01,2013-01-26 01:15:00,
2013-01-25 19:19:00,9.6,6.8,30.02,West,277,0.0,0.0,88,0.00,,SKC,0.00,VWS V14.01,2013-01-26 01:19:00,
2013-01-25 19:20:00,8.3,5.0,30.04,West,277,0.0,0.0,86,0.00,,SKC,0.00,VWS V14.01,2013-01-26 01:20:00,
2013-01-25 19:24:00,9.6,6.8,30.02,West,277,0.0,0.0,88,0.00,,SKC,0.00,VWS V14.01,2013-01-26 01:24:00,
2013-01-25 19:25:00,8.2,5.1,30.04,West,264,0.0,0.0,87,0.00,,SKC,0.00,VWS V14.01,2013-01-26 01:25:00,
2013-01-25 19:29:00,9.7,6.6,30.02,West,277,0.0,0.0,87,0.00,,SKC,0.00,VWS V14.01,2013-01-26 01:29:00,
2013-01-25 19:30:00,8.4,5.6,30.05,West,272,0.0,0.0,88,0.00,,SKC,0.00,VWS V14.01,2013-01-26 01:30:00,
2013-01-25 19:34:00,9.7,6.6,30.03,WNW,291,0.0,2.0,87,0.00,,SKC,0.00,VWS V14.01,2013-01-26 01:34:00,
2013-01-25 19:35:00,8.5,5.7,30.05,West,272,0.0,3.0,88,0.00,,SKC,0.00,VWS V14.01,2013-01-26 01:35:00,
2013-01-25 19:39:00,9.6,6.3,30.03,West,276,0.0,1.0,86,0.00,,SKC,0.00,VWS V14.01,2013-01-26 01:39:00,
2013-01-25 19:40:00,8.4,5.6,30.05,West,277,0.0,3.0,88,0.00,,SKC,0.00,VWS V14.01,2013-01-26 01:40:00,
2013-01-25 19:44:00,9.5,6.4,30.03,West,279,1.0,2.0,87,0.00,,SKC,0.00,VWS V14.01,2013-01-26 01:44:00,
2013-01-25 19:45:00,8.2,5.4,30.05,West,268,0.0,0.0,88,0.00,,SKC,0.00,VWS V14.01,2013-01-26 01:45:00,
2013-01-25 19:49:00,9.5,6.4,30.03,West,279,1.0,1.0,87,0.00,,SKC,0.00,VWS V14.01,2013-01-26 01:49:00,
2013-01-25 19:50:00,8.0,5.2,30.05,West,272,0.0,0.0,88,0.00,,SKC,0.00,VWS V14.01,2013-01-26 01:50:00,
2013-01-25 19:54:00,9.5,6.2,30.03,West,280,0.0,1.0,86,0.00,,SKC,0.00,VWS V14.01,2013-01-26 01:54:00,
2013-01-25 19:55:00,8.0,5.2,30.05,WNW,284,1.0,1.0,88,0.00,,SKC,0.00,VWS V14.01,2013-01-26 01:55:00,
2013-01-25 19:59:00,9.4,6.3,30.03,WNW,286,0.0,0.0,87,0.00,,SKC,0.00,VWS V14.01,2013-01-26 01:59:00,
2013-01-25 20:00:00,8.0,5.4,30.06,WNW,282,0.0,4.0,89,0.00,,SKC,0.00,VWS V14.01,2013-01-26 02:00:00,
2013-01-25 20:04:00,9.2,5.9,30.03,WNW,286,0.0,0.0,86,0.00,,SKC,0.00,VWS V14.01,2013-01-26 02:04:00,
2013-01-25 20:05:00,8.1,5.5,30.06,West,269,0.0,3.0,89,0.00,,SKC,0.00,VWS V14.01,2013-01-26 02:05:00,
2013-01-25 20:09:00,9.1,6.0,30.03,West,277,0.0,0.0,87,0.00,,SKC,0.00,VWS V14.01,2013-01-26 02:09:00,
2013-01-25 20:14:00,9.0,5.9,30.03,West,277,0.0,0.0,87,0.00,,SKC,0.00,VWS V14.01,2013-01-26 02:14:00,
2013-01-25 20:15:00,8.1,5.5,30.06,WNW,284,1.0,1.0,89,0.00,,SKC,0.00,VWS V14.01,2013-01-26 02:15:00,
2013-01-25 20:19:00,8.7,5.4,30.04,West,277,0.0,0.0,86,0.00,,SKC,0.00,VWS V14.01,2013-01-26 02:19:00,
2013-01-25 20:20:00,8.0,5.4,30.06,West,271,1.0,2.0,89,0.00,,SKC,0.00,VWS V14.01,2013-01-26 02:20:00,
2013-01-25 20:24:00,8.2,4.9,30.04,West,273,0.0,0.0,86,0.00,,SKC,0.00,VWS V14.01,2013-01-26 02:24:00,
2013-01-25 20:25:00,8.0,5.4,30.06,West,274,0.0,2.0,89,0.00,,SKC,0.00,VWS V14.01,2013-01-26 02:25:00,
2013-01-25 20:29:00,8.3,5.5,30.04,West,279,0.0,0.0,88,0.00,,SKC,0.00,VWS V14.01,2013-01-26 02:29:00,
2013-01-25 20:34:00,8.5,5.7,30.05,West,279,0.0,3.0,88,0.00,,SKC,0.00,VWS V14.01,2013-01-26 02:34:00,
2013-01-25 20:35:00,8.0,5.2,30.06,West,263,1.0,3.0,88,0.00,,SKC,0.00,VWS V14.01,2013-01-26 02:35:00,
2013-01-25 20:39:00,8.4,5.6,30.05,WNW,287,2.0,2.0,88,0.00,,SKC,0.00,VWS V14.01,2013-01-26 02:39:00,
2013-01-25 20:40:00,7.8,5.0,30.06,West,269,1.0,3.0,88,0.00,,SKC,0.00,VWS V14.01,2013-01-26 02:40:00,
2013-01-25 20:44:00,8.3,5.5,30.05,West,272,0.0,0.0,88,0.00,,SKC,0.00,VWS V14.01,2013-01-26 02:44:00,
2013-01-25 20:45:00,7.8,5.0,30.07,West,281,1.0,2.0,88,0.00,,SKC,0.00,VWS V14.01,2013-01-26 02:45:00,
2013-01-25 20:49:00,8.1,5.3,30.05,West,269,0.0,0.0,88,0.00,,SKC,0.00,VWS V14.01,2013-01-26 02:49:00,
2013-01-25 20:50:00,7.8,5.0,30.07,West,269,1.0,2.0,88,0.00,,SKC,0.00,VWS V14.01,2013-01-26 02:50:00,
2013-01-25 20:54:00,8.0,5.2,30.05,West,274,0.0,1.0,88,0.00,,SKC,0.00,VWS V14.01,2013-01-26 02:54:00,
2013-01-25 20:55:00,7.8,5.0,30.07,WNW,284,3.0,4.0,88,0.00,,SKC,0.00,VWS V14.01,2013-01-26 02:55:00,
2013-01-25 20:59:00,8.0,5.4,30.05,West,272,0.0,1.0,89,0.00,,SKC,0.00,VWS V14.01,2013-01-26 02:59:00,
2013-01-25 21:00:00,7.8,5.0,30.07,West,267,1.0,4.0,88,0.00,,SKC,0.00,VWS V14.01,2013-01-26 03:00:00,
2013-01-25 21:04:00,8.0,5.4,30.06,West,280,0.0,1.0,89,0.00,,SKC,0.00,VWS V14.01,2013-01-26 03:04:00,
2013-01-25 21:05:00,7.8,5.0,30.07,West,276,1.0,4.0,88,0.00,,SKC,0.00,VWS V14.01,2013-01-26 03:05:00,
2013-01-25 21:09:00,8.1,5.5,30.06,WNW,288,2.0,2.0,89,0.00,,SKC,0.00,VWS V14.01,2013-01-26 03:09:00,
2013-01-25 21:10:00,8.0,4.9,30.07,West,269,4.0,8.0,87,0.00,,SKC,0.00,VWS V14.01,2013-01-26 03:10:00,
2013-01-25 21:14:00,8.2,5.6,30.06,West,274,1.0,1.0,89,0.00,,SKC,0.00,VWS V14.01,2013-01-26 03:14:00,
2013-01-25 21:15:00,8.0,4.9,30.08,WSW,248,0.0,4.0,87,0.00,,SKC,0.00,VWS V14.01,2013-01-26 03:15:00,
2013-01-25 21:19:00,8.1,5.5,30.06,West,277,1.0,2.0,89,0.00,,SKC,0.00,VWS V14.01,2013-01-26 03:19:00,
2013-01-25 21:20:00,7.9,4.8,30.08,WNW,286,0.0,7.0,87,0.00,,SKC,0.00,VWS V14.01,2013-01-26 03:20:00,
2013-01-25 21:24:00,8.0,5.4,30.06,West,275,0.0,2.0,89,0.00,,SKC,0.00,VWS V14.01,2013-01-26 03:24:00,
2013-01-25 21:25:00,7.7,4.7,30.08,West,269,0.0,3.0,87,0.00,,SKC,0.00,VWS V14.01,2013-01-26 03:25:00,
2013-01-25 21:29:00,8.0,5.4,30.06,West,276,1.0,2.0,89,0.00,,SKC,0.00,VWS V14.01,2013-01-26 03:29:00,
2013-01-25 21:30:00,7.6,4.6,30.09,WNW,286,1.0,3.0,87,0.00,,SKC,0.00,VWS V14.01,2013-01-26 03:30:00,
2013-01-25 21:34:00,8.1,5.5,30.06,West,264,0.0,3.0,89,0.00,,SKC,0.00,VWS V14.01,2013-01-26 03:34:00,
2013-01-25 21:35:00,7.6,4.6,30.09,West,276,2.0,3.0,87,0.00,,SKC,0.00,VWS V14.01,2013-01-26 03:35:00,
2013-01-25 21:39:00,7.9,5.1,30.06,WNW,287,1.0,2.0,88,0.00,,SKC,0.00,VWS V14.01,2013-01-26 03:39:00,
2013-01-25 21:40:00,7.6,4.6,30.09,West,263,2.0,4.0,87,0.00,,SKC,0.00,VWS V14.01,2013-01-26 03:40:00,
2013-01-25 21:44:00,7.8,5.0,30.06,WSW,257,1.0,2.0,88,0.00,,SKC,0.00,VWS V14.01,2013-01-26 03:44:00,
2013-01-25 21:45:00,7.5,4.4,30.09,West,269,1.0,3.0,87,0.00,,SKC,0.00,VWS V14.01,2013-01-26 03:45:00,
2013-01-25 21:49:00,7.8,5.0,30.07,West,265,0.0,1.0,88,0.00,,SKC,0.00,VWS V14.01,2013-01-26 03:49:00,
2013-01-25 21:50:00,7.4,4.3,30.09,West,260,1.0,3.0,87,0.00,,SKC,0.00,VWS V14.01,2013-01-26 03:50:00,
2013-01-25 21:54:00,7.7,4.9,30.07,West,272,1.0,2.0,88,0.00,,SKC,0.00,VWS V14.01,2013-01-26 03:54:00,
2013-01-25 21:55:00,7.4,4.3,30.09,West,279,1.0,5.0,87,0.00,,SKC,0.00,VWS V14.01,2013-01-26 03:55:00,
2013-01-25 21:59:00,7.9,5.1,30.07,West,265,0.0,3.0,88,0.00,,SKC,0.00,VWS V14.01,2013-01-26 03:59:00,
2013-01-25 22:00:00,7.3,4.0,30.10,West,281,2.0,4.0,86,0.00,,SKC,0.00,VWS V14.01,2013-01-26 04:00:00,
2013-01-25 22:04:00,7.8,5.0,30.07,WNW,283,0.0,3.0,88,0.00,,SKC,0.00,VWS V14.01,2013-01-26 04:04:00,
2013-01-25 22:05:00,7.2,3.9,30.10,WNW,283,1.0,4.0,86,0.00,,SKC,0.00,VWS V14.01,2013-01-26 04:05:00,
2013-01-25 22:09:00,7.9,5.1,30.07,West,267,2.0,8.0,88,0.00,,SKC,0.00,VWS V14.01,2013-01-26 04:09:00,
2013-01-25 22:10:00,7.1,4.1,30.10,West,271,4.0,4.0,87,0.00,,SKC,0.00,VWS V14.01,2013-01-26 04:10:00,
2013-01-25 22:14:00,8.0,4.9,30.07,West,277,1.0,4.0,87,0.00,,SKC,0.00,VWS V14.01,2013-01-26 04:14:00,
2013-01-25 22:15:00,7.1,4.1,30.10,West,277,1.0,4.0,87,0.00,,SKC,0.00,VWS V14.01,2013-01-26 04:15:00,
2013-01-25 22:19:00,7.9,4.8,30.08,WNW,286,1.0,7.0,87,0.00,,SKC,0.00,VWS V14.01,2013-01-26 04:19:00,
2013-01-25 22:20:00,7.0,4.0,30.10,West,259,2.0,4.0,87,0.00,,SKC,0.00,VWS V14.01,2013-01-26 04:20:00,
2013-01-25 22:24:00,7.8,4.7,30.08,WNW,283,1.0,2.0,87,0.00,,SKC,0.00,VWS V14.01,2013-01-26 04:24:00,
2013-01-25 22:25:00,7.0,4.0,30.10,West,277,2.0,4.0,87,0.00,,SKC,0.00,VWS V14.01,2013-01-26 04:25:00,
2013-01-25 22:29:00,7.7,4.7,30.08,West,275,0.0,2.0,87,0.00,,SKC,0.00,VWS V14.01,2013-01-26 04:29:00,
2013-01-25 22:30:00,6.9,3.9,30.11,WNW,287,3.0,4.0,87,0.00,,SKC,0.00,VWS V14.01,2013-01-26 04:30:00,
2013-01-25 22:34:00,7.6,4.6,30.09,WSW,256,1.0,3.0,87,0.00,,SKC,0.00,VWS V14.01,2013-01-26 04:34:00,
2013-01-25 22:35:00,6.8,3.8,30.11,West,261,1.0,4.0,87,0.00,,SKC,0.00,VWS V14.01,2013-01-26 04:35:00,
2013-01-25 22:39:00,7.6,4.6,30.09,West,263,2.0,4.0,87,0.00,,SKC,0.00,VWS V14.01,2013-01-26 04:39:00,
2013-01-25 22:40:00,6.7,3.7,30.11,West,265,2.0,4.0,87,0.00,,SKC,0.00,VWS V14.01,2013-01-26 04:40:00,
2013-01-25 22:44:00,7.6,4.6,30.09,WNW,284,1.0,3.0,87,0.00,,SKC,0.00,VWS V14.01,2013-01-26 04:44:00,
2013-01-25 22:45:00,6.7,3.7,30.12,West,277,3.0,4.0,87,0.00,,SKC,0.00,VWS V14.01,2013-01-26 04:45:00,
2013-01-25 22:49:00,7.4,4.3,30.09,WNW,282,1.0,3.0,87,0.00,,SKC,0.00,VWS V14.01,2013-01-26 04:49:00,
2013-01-25 22:50:00,6.7,3.7,30.12,WNW,288,2.0,4.0,87,0.00,,SKC,0.00,VWS V14.01,2013-01-26 04:50:00,
2013-01-25 22:54:00,7.4,4.3,30.09,West,262,1.0,5.0,87,0.00,,SKC,0.00,VWS V14.01,2013-01-26 04:54:00,
2013-01-25 22:55:00,6.8,3.8,30.12,WSW,250,2.0,3.0,87,0.00,,SKC,0.00,VWS V14.01,2013-01-26 04:55:00,
2013-01-25 22:59:00,7.4,4.3,30.09,West,273,1.0,4.0,87,0.00,,SKC,0.00,VWS V14.01,2013-01-26 04:59:00,
2013-01-25 23:00:00,7.4,4.3,30.09,West,265,1.0,4.0,87,0.00,,SKC,0.00,VWS V14.01,2013-01-26 05:00:00,
2013-01-25 23:01:00,7.4,4.3,30.09,West,265,0.0,4.0,87,0.00,,SKC,0.00,VWS V14.01,2013-01-26 05:01:00,
2013-01-25 23:05:00,7.0,4.0,30.12,West,279,3.0,5.0,87,0.00,,SKC,0.00,VWS V14.01,2013-01-26 05:05:00,
2013-01-25 23:06:00,7.3,4.0,30.10,West,279,0.0,4.0,86,0.00,,SKC,0.00,VWS V14.01,2013-01-26 05:06:00,
2013-01-25 23:10:00,7.1,4.1,30.12,West,260,2.0,4.0,87,0.00,,SKC,0.00,VWS V14.01,2013-01-26 05:10:00,
2013-01-25 23:11:00,7.1,4.1,30.10,WNW,288,3.0,3.0,87,0.00,,SKC,0.00,VWS V14.01,2013-01-26 05:11:00,
2013-01-25 23:15:00,7.1,4.1,30.14,WSW,245,2.0,3.0,87,0.00,,SKC,0.00,VWS V14.01,2013-01-26 05:15:00,
2013-01-25 23:16:00,7.1,4.1,30.10,West,273,2.0,4.0,87,0.00,,SKC,0.00,VWS V14.01,2013-01-26 05:16:00,
2013-01-25 23:20:00,7.1,4.1,30.14,WSW,244,2.0,6.0,87,0.00,,SKC,0.00,VWS V14.01,2013-01-26 05:20:00,
2013-01-25 23:21:00,7.0,4.0,30.10,WNW,286,2.0,4.0,87,0.00,,SKC,0.00,VWS V14.01,2013-01-26 05:21:00,
2013-01-25 23:25:00,7.1,4.1,30.14,WNW,283,3.0,5.0,87,0.00,,SKC,0.00,VWS V14.01,2013-01-26 05:25:00,
2013-01-25 23:26:00,7.0,4.0,30.10,WNW,289,2.0,4.0,87,0.00,,SKC,0.00,VWS V14.01,2013-01-26 05:26:00,
2013-01-25 23:30:00,7.0,4.0,30.14,WNW,290,2.0,4.0,87,0.00,,SKC,0.00,VWS V14.01,2013-01-26 05:30:00,
2013-01-25 23:31:00,6.9,3.9,30.10,WNW,286,3.0,4.0,87,0.00,,SKC,0.00,VWS V14.01,2013-01-26 05:31:00,
2013-01-25 23:35:00,7.0,4.0,30.14,West,265,1.0,3.0,87,0.00,,SKC,0.00,VWS V14.01,2013-01-26 05:35:00,
2013-01-25 23:36:00,6.8,3.8,30.11,West,280,2.0,4.0,87,0.00,,SKC,0.00,VWS V14.01,2013-01-26 05:36:00,
2013-01-25 23:40:00,6.9,3.9,30.14,WNW,298,0.0,4.0,87,0.00,,SKC,0.00,VWS V14.01,2013-01-26 05:40:00,
2013-01-25 23:41:00,6.7,3.7,30.11,West,281,1.0,2.0,87,0.00,,SKC,0.00,VWS V14.01,2013-01-26 05:41:00,
2013-01-25 23:45:00,6.7,3.7,30.15,WNW,286,1.0,4.0,87,0.00,,SKC,0.00,VWS V14.01,2013-01-26 05:45:00,
2013-01-25 23:46:00,6.7,3.7,30.11,West,279,2.0,4.0,87,0.00,,SKC,0.00,VWS V14.01,2013-01-26 05:46:00,
2013-01-25 23:50:00,6.6,3.6,30.15,West,266,1.0,4.0,87,0.00,,SKC,0.00,VWS V14.01,2013-01-26 05:50:00,
2013-01-25 23:51:00,6.7,3.7,30.12,WNW,287,2.0,3.0,87,0.00,,SKC,0.00,VWS V14.01,2013-01-26 05:51:00,
2013-01-25 23:55:00,6.6,3.6,30.15,West,271,1.0,3.0,87,0.00,,SKC,0.00,VWS V14.01,2013-01-26 05:55:00,
2013-01-25 23:56:00,6.8,3.8,30.12,West,280,2.0,3.0,87,0.00,,SKC,0.00,VWS V14.01,2013-01-26 05:56:00,